Saint Francis River (Missouri), Mill Creek (07035800)

StateMissouriLatestHigh (1370 cfs)
RiverSaint Francis RiverRatingObservedEstimated
Updated2021-04-10 21:30 (48 minutes ago)Flood - The river is flooding. Obstacles can be treacherous or deadly. The river should be avoided at this stage for casual trips and definitely for the inexperienced. Trips should be attempted only with protective gear and equipment.Flood(none)2961
Discharge1370 cfs (median: 416 cfs)High - The river is high and potentially dangerous, especially for the young and / or inexperienced. Normal stream obstacles are sometimes difficult to navigate. Extended distances can be attempted, but canoe travel may not be advisable.High(none)1113
Height4.18 feetGood - Conditions are ideal for a canoe or kayak. Boats typically will drag on fewer than one-quarter of riffles, if at all, and portages are unnecessary or rare. Normal float lengths can be attempted without a problem.Good(none)420
TrendRising (rising over 24 hours)Low - River is low but can still be floated. Some riffles are okay but most come with significant dragging and might need a portage. Float lengths should be reduced to accommodate low flow, dragging, and portages.Low(none)115
USGSExternal icon USGS Site (External icon Google Maps)Poor - River is too low to float comfortably. Most or all riffles will drag or must be portaged and some obstacles (such as slick shelf rock) cause undue problems. Avoid the river at this stage for casual paddling trips.Poor(none)28

Trending Data

Plot Image

Trips for Saint Francis River (Missouri), Mill Creek (07035800)

DateStartEndDistanceConditionDischargeHeightFishingDetails

A total of 0 rows are displayed.

Condition Descriptions

Fishing Conditions

Fish Species

Notes

Classic Trip List

The classic River Trips application is still available for use. It is updated with the new system using a data retrofit. It is no longer maintained. The original River Trips application is no longer updated (as of 1 Dec 2016) but can be checked for errors or for the condition of the data before it was converted to the new system.

Gauge Data Table

ObservationHeightDischargeMaximum
Discharge
Minimum
Discharge
Mean
Discharge
P05P10P20P25P50
(Median)
P75P80P90P95
2021-04-10 21:30 4.18 1370 20000 (2008) 164 (2000) 1330 178 208 272 283 416 729 806 3260 9710
2021-04-10 21:00 4.17 1360 20000 (2008) 164 (2000) 1330 178 208 272 283 416 729 806 3260 9710
2021-04-10 20:30 4.18 1370 20000 (2008) 164 (2000) 1330 178 208 272 283 416 729 806 3260 9710
2021-04-10 20:00 4.18 1370 20000 (2008) 164 (2000) 1330 178 208 272 283 416 729 806 3260 9710
2021-04-10 19:30 4.17 1360 20000 (2008) 164 (2000) 1330 178 208 272 283 416 729 806 3260 9710
2021-04-10 19:00 4.17 1360 20000 (2008) 164 (2000) 1330 178 208 272 283 416 729 806 3260 9710
2021-04-10 18:30 4.17 1360 20000 (2008) 164 (2000) 1330 178 208 272 283 416 729 806 3260 9710
2021-04-10 18:00 4.16 1360 20000 (2008) 164 (2000) 1330 178 208 272 283 416 729 806 3260 9710
2021-04-10 17:30 4.16 1360 20000 (2008) 164 (2000) 1330 178 208 272 283 416 729 806 3260 9710
2021-04-10 17:00 4.16 1360 20000 (2008) 164 (2000) 1330 178 208 272 283 416 729 806 3260 9710
2021-04-10 16:30 4.16 1360 20000 (2008) 164 (2000) 1330 178 208 272 283 416 729 806 3260 9710
2021-04-10 16:00 4.14 1340 20000 (2008) 164 (2000) 1330 178 208 272 283 416 729 806 3260 9710
2021-04-10 15:30 4.13 1330 20000 (2008) 164 (2000) 1330 178 208 272 283 416 729 806 3260 9710
2021-04-10 15:00 4.13 1330 20000 (2008) 164 (2000) 1330 178 208 272 283 416 729 806 3260 9710
2021-04-10 14:30 4.13 1330 20000 (2008) 164 (2000) 1330 178 208 272 283 416 729 806 3260 9710
2021-04-10 14:00 4.12 1320 20000 (2008) 164 (2000) 1330 178 208 272 283 416 729 806 3260 9710
2021-04-10 13:30 4.12 1320 20000 (2008) 164 (2000) 1330 178 208 272 283 416 729 806 3260 9710
2021-04-10 13:00 4.10 1310 20000 (2008) 164 (2000) 1330 178 208 272 283 416 729 806 3260 9710
2021-04-10 12:30 4.10 1310 20000 (2008) 164 (2000) 1330 178 208 272 283 416 729 806 3260 9710
2021-04-10 12:00 4.09 1300 20000 (2008) 164 (2000) 1330 178 208 272 283 416 729 806 3260 9710
2021-04-10 11:30 4.08 1290 20000 (2008) 164 (2000) 1330 178 208 272 283 416 729 806 3260 9710
2021-04-10 11:00 4.07 1290 20000 (2008) 164 (2000) 1330 178 208 272 283 416 729 806 3260 9710
2021-04-10 10:30 4.07 1290 20000 (2008) 164 (2000) 1330 178 208 272 283 416 729 806 3260 9710
2021-04-10 10:00 4.06 1280 20000 (2008) 164 (2000) 1330 178 208 272 283 416 729 806 3260 9710
2021-04-10 09:30 4.06 1280 20000 (2008) 164 (2000) 1330 178 208 272 283 416 729 806 3260 9710
2021-04-10 09:00 4.05 1270 20000 (2008) 164 (2000) 1330 178 208 272 283 416 729 806 3260 9710
2021-04-10 08:30 4.04 1260 20000 (2008) 164 (2000) 1330 178 208 272 283 416 729 806 3260 9710
2021-04-10 08:00 4.03 1260 20000 (2008) 164 (2000) 1330 178 208 272 283 416 729 806 3260 9710
2021-04-10 07:30 4.02 1250 20000 (2008) 164 (2000) 1330 178 208 272 283 416 729 806 3260 9710
2021-04-10 07:00 4.01 1240 20000 (2008) 164 (2000) 1330 178 208 272 283 416 729 806 3260 9710
2021-04-10 06:30 3.99 1230 20000 (2008) 164 (2000) 1330 178 208 272 283 416 729 806 3260 9710
2021-04-10 06:00 3.99 1230 20000 (2008) 164 (2000) 1330 178 208 272 283 416 729 806 3260 9710
2021-04-10 05:30 3.99 1230 20000 (2008) 164 (2000) 1330 178 208 272 283 416 729 806 3260 9710
2021-04-10 05:00 3.99 1230 20000 (2008) 164 (2000) 1330 178 208 272 283 416 729 806 3260 9710
2021-04-10 04:30 3.99 1230 20000 (2008) 164 (2000) 1330 178 208 272 283 416 729 806 3260 9710
2021-04-10 04:00 3.99 1230 20000 (2008) 164 (2000) 1330 178 208 272 283 416 729 806 3260 9710
2021-04-10 03:30 4.00 1230 20000 (2008) 164 (2000) 1330 178 208 272 283 416 729 806 3260 9710
2021-04-10 03:00 4.00 1230 20000 (2008) 164 (2000) 1330 178 208 272 283 416 729 806 3260 9710
2021-04-10 02:30 4.01 1240 20000 (2008) 164 (2000) 1330 178 208 272 283 416 729 806 3260 9710
2021-04-10 02:00 4.01 1240 20000 (2008) 164 (2000) 1330 178 208 272 283 416 729 806 3260 9710
2021-04-10 01:30 4.01 1240 20000 (2008) 164 (2000) 1330 178 208 272 283 416 729 806 3260 9710
2021-04-10 01:00 4.01 1240 20000 (2008) 164 (2000) 1330 178 208 272 283 416 729 806 3260 9710
2021-04-10 00:30 3.97 1210 20000 (2008) 164 (2000) 1330 178 208 272 283 416 729 806 3260 9710
2021-04-10 00:00 3.95 1200 20000 (2008) 164 (2000) 1330 178 208 272 283 416 729 806 3260 9710
2021-04-09 23:30 3.92 1180 6690 (2015) 182 (2000) 749 190 219 275 292 419 697 791 1010 4300
2021-04-09 23:00 3.90 1160 6690 (2015) 182 (2000) 749 190 219 275 292 419 697 791 1010 4300
2021-04-09 22:30 3.89 1160 6690 (2015) 182 (2000) 749 190 219 275 292 419 697 791 1010 4300
2021-04-09 22:00 3.90 1160 6690 (2015) 182 (2000) 749 190 219 275 292 419 697 791 1010 4300
2021-04-09 21:30 3.91 1170 6690 (2015) 182 (2000) 749 190 219 275 292 419 697 791 1010 4300
2021-04-09 21:00 3.92 1180 6690 (2015) 182 (2000) 749 190 219 275 292 419 697 791 1010 4300
2021-04-09 20:30 3.92 1180 6690 (2015) 182 (2000) 749 190 219 275 292 419 697 791 1010 4300
2021-04-09 20:00 3.94 1190 6690 (2015) 182 (2000) 749 190 219 275 292 419 697 791 1010 4300
2021-04-09 19:30 3.95 1200 6690 (2015) 182 (2000) 749 190 219 275 292 419 697 791 1010 4300
2021-04-09 19:00 3.96 1210 6690 (2015) 182 (2000) 749 190 219 275 292 419 697 791 1010 4300
2021-04-09 18:30 3.98 1220 6690 (2015) 182 (2000) 749 190 219 275 292 419 697 791 1010 4300
2021-04-09 18:00 3.99 1230 6690 (2015) 182 (2000) 749 190 219 275 292 419 697 791 1010 4300
2021-04-09 17:30 3.98 1220 6690 (2015) 182 (2000) 749 190 219 275 292 419 697 791 1010 4300
2021-04-09 17:00 4.00 1230 6690 (2015) 182 (2000) 749 190 219 275 292 419 697 791 1010 4300
2021-04-09 16:30 4.02 1250 6690 (2015) 182 (2000) 749 190 219 275 292 419 697 791 1010 4300
2021-04-09 16:00 4.04 1260 6690 (2015) 182 (2000) 749 190 219 275 292 419 697 791 1010 4300
2021-04-09 15:30 4.05 1270 6690 (2015) 182 (2000) 749 190 219 275 292 419 697 791 1010 4300
2021-04-09 15:00 4.07 1290 6690 (2015) 182 (2000) 749 190 219 275 292 419 697 791 1010 4300
2021-04-09 14:30 4.09 1300 6690 (2015) 182 (2000) 749 190 219 275 292 419 697 791 1010 4300
2021-04-09 14:00 4.10 1310 6690 (2015) 182 (2000) 749 190 219 275 292 419 697 791 1010 4300
2021-04-09 13:30 4.13 1330 6690 (2015) 182 (2000) 749 190 219 275 292 419 697 791 1010 4300
2021-04-09 13:00 4.14 1340 6690 (2015) 182 (2000) 749 190 219 275 292 419 697 791 1010 4300
2021-04-09 12:30 4.16 1360 6690 (2015) 182 (2000) 749 190 219 275 292 419 697 791 1010 4300
2021-04-09 12:00 4.18 1370 6690 (2015) 182 (2000) 749 190 219 275 292 419 697 791 1010 4300
2021-04-09 11:30 4.20 1390 6690 (2015) 182 (2000) 749 190 219 275 292 419 697 791 1010 4300
2021-04-09 11:00 4.22 1400 6690 (2015) 182 (2000) 749 190 219 275 292 419 697 791 1010 4300
2021-04-09 10:30 4.24 1420 6690 (2015) 182 (2000) 749 190 219 275 292 419 697 791 1010 4300
2021-04-09 10:00 4.26 1440 6690 (2015) 182 (2000) 749 190 219 275 292 419 697 791 1010 4300
2021-04-09 09:30 4.28 1450 6690 (2015) 182 (2000) 749 190 219 275 292 419 697 791 1010 4300
2021-04-09 09:00 4.29 1460 6690 (2015) 182 (2000) 749 190 219 275 292 419 697 791 1010 4300
2021-04-09 08:30 4.31 1480 6690 (2015) 182 (2000) 749 190 219 275 292 419 697 791 1010 4300
2021-04-09 08:00 4.34 1500 6690 (2015) 182 (2000) 749 190 219 275 292 419 697 791 1010 4300
2021-04-09 07:30 4.36 1520 6690 (2015) 182 (2000) 749 190 219 275 292 419 697 791 1010 4300
2021-04-09 07:00 4.38 1540 6690 (2015) 182 (2000) 749 190 219 275 292 419 697 791 1010 4300
2021-04-09 06:30 4.41 1560 6690 (2015) 182 (2000) 749 190 219 275 292 419 697 791 1010 4300
2021-04-09 06:00 4.44 1590 6690 (2015) 182 (2000) 749 190 219 275 292 419 697 791 1010 4300
2021-04-09 05:30 4.46 1610 6690 (2015) 182 (2000) 749 190 219 275 292 419 697 791 1010 4300
2021-04-09 05:00 4.49 1630 6690 (2015) 182 (2000) 749 190 219 275 292 419 697 791 1010 4300
2021-04-09 04:30 4.52 1660 6690 (2015) 182 (2000) 749 190 219 275 292 419 697 791 1010 4300
2021-04-09 04:00 4.54 1680 6690 (2015) 182 (2000) 749 190 219 275 292 419 697 791 1010 4300
2021-04-09 03:30 4.57 1710 6690 (2015) 182 (2000) 749 190 219 275 292 419 697 791 1010 4300
2021-04-09 03:00 4.61 1740 6690 (2015) 182 (2000) 749 190 219 275 292 419 697 791 1010 4300
2021-04-09 02:30 4.64 1770 6690 (2015) 182 (2000) 749 190 219 275 292 419 697 791 1010 4300
2021-04-09 02:00 4.67 1800 6690 (2015) 182 (2000) 749 190 219 275 292 419 697 791 1010 4300
2021-04-09 01:30 4.70 1830 6690 (2015) 182 (2000) 749 190 219 275 292 419 697 791 1010 4300
2021-04-09 01:00 4.74 1870 6690 (2015) 182 (2000) 749 190 219 275 292 419 697 791 1010 4300
2021-04-09 00:30 4.76 1880 6690 (2015) 182 (2000) 749 190 219 275 292 419 697 791 1010 4300
2021-04-09 00:00 4.81 1930 6690 (2015) 182 (2000) 749 190 219 275 292 419 697 791 1010 4300
2021-04-08 23:30 4.84 1960 4460 (2002) 199 (2000) 711 202 237 293 304 498 759 886 1280 2850
2021-04-08 23:00 4.88 1990 4460 (2002) 199 (2000) 711 202 237 293 304 498 759 886 1280 2850
2021-04-08 22:30 4.92 2030 4460 (2002) 199 (2000) 711 202 237 293 304 498 759 886 1280 2850
2021-04-08 22:00 4.96 2060 4460 (2002) 199 (2000) 711 202 237 293 304 498 759 886 1280 2850
2021-04-08 21:30 5.01 2110 4460 (2002) 199 (2000) 711 202 237 293 304 498 759 886 1280 2850
2021-04-08 21:00 5.05 2140 4460 (2002) 199 (2000) 711 202 237 293 304 498 759 886 1280 2850
2021-04-08 20:30 5.11 2190 4460 (2002) 199 (2000) 711 202 237 293 304 498 759 886 1280 2850
2021-04-08 20:00 5.16 2240 4460 (2002) 199 (2000) 711 202 237 293 304 498 759 886 1280 2850
2021-04-08 19:30 5.23 2300 4460 (2002) 199 (2000) 711 202 237 293 304 498 759 886 1280 2850
2021-04-08 19:00 5.28 2340 4460 (2002) 199 (2000) 711 202 237 293 304 498 759 886 1280 2850
2021-04-08 18:30 5.35 2410 4460 (2002) 199 (2000) 711 202 237 293 304 498 759 886 1280 2850
2021-04-08 18:00 5.42 2470 4460 (2002) 199 (2000) 711 202 237 293 304 498 759 886 1280 2850
2021-04-08 17:30 5.48 2530 4460 (2002) 199 (2000) 711 202 237 293 304 498 759 886 1280 2850
2021-04-08 17:00 5.55 2600 4460 (2002) 199 (2000) 711 202 237 293 304 498 759 886 1280 2850
2021-04-08 16:30 5.63 2680 4460 (2002) 199 (2000) 711 202 237 293 304 498 759 886 1280 2850
2021-04-08 16:00 5.69 2740 4460 (2002) 199 (2000) 711 202 237 293 304 498 759 886 1280 2850
2021-04-08 15:30 5.74 2790 4460 (2002) 199 (2000) 711 202 237 293 304 498 759 886 1280 2850
2021-04-08 15:00 5.78 2830 4460 (2002) 199 (2000) 711 202 237 293 304 498 759 886 1280 2850
2021-04-08 14:30 5.81 2860 4460 (2002) 199 (2000) 711 202 237 293 304 498 759 886 1280 2850
2021-04-08 14:00 5.84 2890 4460 (2002) 199 (2000) 711 202 237 293 304 498 759 886 1280 2850
2021-04-08 13:30 5.83 2880 4460 (2002) 199 (2000) 711 202 237 293 304 498 759 886 1280 2850
2021-04-08 13:00 5.77 2820 4460 (2002) 199 (2000) 711 202 237 293 304 498 759 886 1280 2850
2021-04-08 12:30 5.68 2730 4460 (2002) 199 (2000) 711 202 237 293 304 498 759 886 1280 2850
2021-04-08 12:00 5.58 2630 4460 (2002) 199 (2000) 711 202 237 293 304 498 759 886 1280 2850
2021-04-08 11:30 5.46 2510 4460 (2002) 199 (2000) 711 202 237 293 304 498 759 886 1280 2850
2021-04-08 11:00 5.35 2410 4460 (2002) 199 (2000) 711 202 237 293 304 498 759 886 1280 2850
2021-04-08 10:30 5.29 2350 4460 (2002) 199 (2000) 711 202 237 293 304 498 759 886 1280 2850
2021-04-08 10:00 5.21 2280 4460 (2002) 199 (2000) 711 202 237 293 304 498 759 886 1280 2850
2021-04-08 09:30 5.13 2210 4460 (2002) 199 (2000) 711 202 237 293 304 498 759 886 1280 2850
2021-04-08 09:00 5.03 2120 4460 (2002) 199 (2000) 711 202 237 293 304 498 759 886 1280 2850
2021-04-08 08:30 4.94 2050 4460 (2002) 199 (2000) 711 202 237 293 304 498 759 886 1280 2850
2021-04-08 08:00 4.85 1960 4460 (2002) 199 (2000) 711 202 237 293 304 498 759 886 1280 2850
2021-04-08 07:30 4.78 1900 4460 (2002) 199 (2000) 711 202 237 293 304 498 759 886 1280 2850
2021-04-08 07:00 4.73 1860 4460 (2002) 199 (2000) 711 202 237 293 304 498 759 886 1280 2850
2021-04-08 06:30 4.71 1840 4460 (2002) 199 (2000) 711 202 237 293 304 498 759 886 1280 2850
2021-04-08 06:00 4.73 1860 4460 (2002) 199 (2000) 711 202 237 293 304 498 759 886 1280 2850
2021-04-08 05:30 4.76 1880 4460 (2002) 199 (2000) 711 202 237 293 304 498 759 886 1280 2850
2021-04-08 05:00 4.80 1920 4460 (2002) 199 (2000) 711 202 237 293 304 498 759 886 1280 2850
2021-04-08 04:30 4.84 1960 4460 (2002) 199 (2000) 711 202 237 293 304 498 759 886 1280 2850
2021-04-08 04:00 4.86 1970 4460 (2002) 199 (2000) 711 202 237 293 304 498 759 886 1280 2850
2021-04-08 03:30 4.84 1960 4460 (2002) 199 (2000) 711 202 237 293 304 498 759 886 1280 2850
2021-04-08 03:00 4.70 1830 4460 (2002) 199 (2000) 711 202 237 293 304 498 759 886 1280 2850
2021-04-08 02:30 4.43 1580 4460 (2002) 199 (2000) 711 202 237 293 304 498 759 886 1280 2850
2021-04-08 02:00 4.09 1300 4460 (2002) 199 (2000) 711 202 237 293 304 498 759 886 1280 2850
2021-04-08 01:30 3.86 1130 4460 (2002) 199 (2000) 711 202 237 293 304 498 759 886 1280 2850
2021-04-08 01:00 3.70 1010 4460 (2002) 199 (2000) 711 202 237 293 304 498 759 886 1280 2850
2021-04-08 00:30 3.50 876 4460 (2002) 199 (2000) 711 202 237 293 304 498 759 886 1280 2850
2021-04-08 00:00 3.22 702 4460 (2002) 199 (2000) 711 202 237 293 304 498 759 886 1280 2850
2021-04-07 23:30 2.87 514 1710 (1997) 209 (1995) 600 215 248 299 320 506 802 878 1060 1530
2021-04-07 23:00 2.70 438 1710 (1997) 209 (1995) 600 215 248 299 320 506 802 878 1060 1530
2021-04-07 22:30 2.64 414 1710 (1997) 209 (1995) 600 215 248 299 320 506 802 878 1060 1530
2021-04-07 22:00 2.60 398 1710 (1997) 209 (1995) 600 215 248 299 320 506 802 878 1060 1530
2021-04-07 21:30 2.53 372 1710 (1997) 209 (1995) 600 215 248 299 320 506 802 878 1060 1530
2021-04-07 19:30 2.49 357 1710 (1997) 209 (1995) 600 215 248 299 320 506 802 878 1060 1530
2021-04-07 18:30 2.44 340 1710 (1997) 209 (1995) 600 215 248 299 320 506 802 878 1060 1530
2021-04-07 18:00 2.41 330 1710 (1997) 209 (1995) 600 215 248 299 320 506 802 878 1060 1530
2021-04-07 17:30 2.42 333 1710 (1997) 209 (1995) 600 215 248 299 320 506 802 878 1060 1530
2021-04-07 17:00 2.40 327 1710 (1997) 209 (1995) 600 215 248 299 320 506 802 878 1060 1530
2021-04-07 16:30 2.40 327 1710 (1997) 209 (1995) 600 215 248 299 320 506 802 878 1060 1530
2021-04-07 16:00 2.40 327 1710 (1997) 209 (1995) 600 215 248 299 320 506 802 878 1060 1530
2021-04-07 15:30 2.41 330 1710 (1997) 209 (1995) 600 215 248 299 320 506 802 878 1060 1530
2021-04-07 15:00 2.41 330 1710 (1997) 209 (1995) 600 215 248 299 320 506 802 878 1060 1530
2021-04-07 14:30 2.41 330 1710 (1997) 209 (1995) 600 215 248 299 320 506 802 878 1060 1530
2021-04-07 14:00 2.41 330 1710 (1997) 209 (1995) 600 215 248 299 320 506 802 878 1060 1530
2021-04-07 13:30 2.41 330 1710 (1997) 209 (1995) 600 215 248 299 320 506 802 878 1060 1530
2021-04-07 13:00 2.42 333 1710 (1997) 209 (1995) 600 215 248 299 320 506 802 878 1060 1530
2021-04-07 12:30 2.41 330 1710 (1997) 209 (1995) 600 215 248 299 320 506 802 878 1060 1530
2021-04-07 12:00 2.41 330 1710 (1997) 209 (1995) 600 215 248 299 320 506 802 878 1060 1530
2021-04-07 11:30 2.42 333 1710 (1997) 209 (1995) 600 215 248 299 320 506 802 878 1060 1530
2021-04-07 11:00 2.42 333 1710 (1997) 209 (1995) 600 215 248 299 320 506 802 878 1060 1530
2021-04-07 10:30 2.43 337 1710 (1997) 209 (1995) 600 215 248 299 320 506 802 878 1060 1530
2021-04-07 10:00 2.42 333 1710 (1997) 209 (1995) 600 215 248 299 320 506 802 878 1060 1530
2021-04-07 09:30 2.42 333 1710 (1997) 209 (1995) 600 215 248 299 320 506 802 878 1060 1530
2021-04-07 09:00 2.42 333 1710 (1997) 209 (1995) 600 215 248 299 320 506 802 878 1060 1530
2021-04-07 08:30 2.42 333 1710 (1997) 209 (1995) 600 215 248 299 320 506 802 878 1060 1530
2021-04-07 08:00 2.42 333 1710 (1997) 209 (1995) 600 215 248 299 320 506 802 878 1060 1530
2021-04-07 07:30 2.43 337 1710 (1997) 209 (1995) 600 215 248 299 320 506 802 878 1060 1530
2021-04-07 07:00 2.44 340 1710 (1997) 209 (1995) 600 215 248 299 320 506 802 878 1060 1530
2021-04-07 06:30 2.43 337 1710 (1997) 209 (1995) 600 215 248 299 320 506 802 878 1060 1530
2021-04-07 06:00 2.43 337 1710 (1997) 209 (1995) 600 215 248 299 320 506 802 878 1060 1530
2021-04-07 05:30 2.43 337 1710 (1997) 209 (1995) 600 215 248 299 320 506 802 878 1060 1530
2021-04-07 05:00 2.43 337 1710 (1997) 209 (1995) 600 215 248 299 320 506 802 878 1060 1530
2021-04-07 04:30 2.44 340 1710 (1997) 209 (1995) 600 215 248 299 320 506 802 878 1060 1530
2021-04-07 04:00 2.44 340 1710 (1997) 209 (1995) 600 215 248 299 320 506 802 878 1060 1530
2021-04-07 03:30 2.44 340 1710 (1997) 209 (1995) 600 215 248 299 320 506 802 878 1060 1530
2021-04-07 03:00 2.44 340 1710 (1997) 209 (1995) 600 215 248 299 320 506 802 878 1060 1530
2021-04-07 02:30 2.45 343 1710 (1997) 209 (1995) 600 215 248 299 320 506 802 878 1060 1530
2021-04-07 02:00 2.45 343 1710 (1997) 209 (1995) 600 215 248 299 320 506 802 878 1060 1530
2021-04-07 01:30 2.45 343 1710 (1997) 209 (1995) 600 215 248 299 320 506 802 878 1060 1530
2021-04-07 01:00 2.46 347 1710 (1997) 209 (1995) 600 215 248 299 320 506 802 878 1060 1530
2021-04-07 00:30 2.46 347 1710 (1997) 209 (1995) 600 215 248 299 320 506 802 878 1060 1530
2021-04-07 00:00 2.46 347 1710 (1997) 209 (1995) 600 215 248 299 320 506 802 878 1060 1530
2021-04-06 23:30 2.46 347 4880 (1997) 217 (1995) 821 226 257 306 340 524 964 1080 1570 3480
2021-04-06 23:00 2.46 347 4880 (1997) 217 (1995) 821 226 257 306 340 524 964 1080 1570 3480
2021-04-06 22:30 2.47 350 4880 (1997) 217 (1995) 821 226 257 306 340 524 964 1080 1570 3480
2021-04-06 22:00 2.47 350 4880 (1997) 217 (1995) 821 226 257 306 340 524 964 1080 1570 3480
2021-04-06 21:30 2.47 350 4880 (1997) 217 (1995) 821 226 257 306 340 524 964 1080 1570 3480
2021-04-06 21:00 2.48 354 4880 (1997) 217 (1995) 821 226 257 306 340 524 964 1080 1570 3480
2021-04-06 20:30 2.48 354 4880 (1997) 217 (1995) 821 226 257 306 340 524 964 1080 1570 3480
2021-04-06 20:00 2.48 354 4880 (1997) 217 (1995) 821 226 257 306 340 524 964 1080 1570 3480
2021-04-06 19:30 2.49 357 4880 (1997) 217 (1995) 821 226 257 306 340 524 964 1080 1570 3480
2021-04-06 19:00 2.48 354 4880 (1997) 217 (1995) 821 226 257 306 340 524 964 1080 1570 3480
2021-04-06 18:30 2.49 357 4880 (1997) 217 (1995) 821 226 257 306 340 524 964 1080 1570 3480
2021-04-06 18:00 2.49 357 4880 (1997) 217 (1995) 821 226 257 306 340 524 964 1080 1570 3480
2021-04-06 17:30 2.49 357 4880 (1997) 217 (1995) 821 226 257 306 340 524 964 1080 1570 3480
2021-04-06 17:00 2.50 361 4880 (1997) 217 (1995) 821 226 257 306 340 524 964 1080 1570 3480
2021-04-06 16:30 2.49 357 4880 (1997) 217 (1995) 821 226 257 306 340 524 964 1080 1570 3480
2021-04-06 16:00 2.50 361 4880 (1997) 217 (1995) 821 226 257 306 340 524 964 1080 1570 3480
2021-04-06 15:30 2.51 364 4880 (1997) 217 (1995) 821 226 257 306 340 524 964 1080 1570 3480
2021-04-06 15:00 2.50 361 4880 (1997) 217 (1995) 821 226 257 306 340 524 964 1080 1570 3480
2021-04-06 14:30 2.50 361 4880 (1997) 217 (1995) 821 226 257 306 340 524 964 1080 1570 3480
2021-04-06 14:00 2.51 364 4880 (1997) 217 (1995) 821 226 257 306 340 524 964 1080 1570 3480
2021-04-06 13:30 2.51 364 4880 (1997) 217 (1995) 821 226 257 306 340 524 964 1080 1570 3480
2021-04-06 13:00 2.51 364 4880 (1997) 217 (1995) 821 226 257 306 340 524 964 1080 1570 3480
2021-04-06 12:30 2.51 364 4880 (1997) 217 (1995) 821 226 257 306 340 524 964 1080 1570 3480
2021-04-06 12:00 2.52 368 4880 (1997) 217 (1995) 821 226 257 306 340 524 964 1080 1570 3480
2021-04-06 11:30 2.51 364 4880 (1997) 217 (1995) 821 226 257 306 340 524 964 1080 1570 3480
2021-04-06 11:00 2.50 361 4880 (1997) 217 (1995) 821 226 257 306 340 524 964 1080 1570 3480
2021-04-06 10:30 2.51 364 4880 (1997) 217 (1995) 821 226 257 306 340 524 964 1080 1570 3480
2021-04-06 10:00 2.51 364 4880 (1997) 217 (1995) 821 226 257 306 340 524 964 1080 1570 3480
2021-04-06 09:30 2.51 364 4880 (1997) 217 (1995) 821 226 257 306 340 524 964 1080 1570 3480
2021-04-06 09:00 2.51 364 4880 (1997) 217 (1995) 821 226 257 306 340 524 964 1080 1570 3480
2021-04-06 08:30 2.51 364 4880 (1997) 217 (1995) 821 226 257 306 340 524 964 1080 1570 3480
2021-04-06 08:00 2.52 368 4880 (1997) 217 (1995) 821 226 257 306 340 524 964 1080 1570 3480
2021-04-06 07:30 2.52 368 4880 (1997) 217 (1995) 821 226 257 306 340 524 964 1080 1570 3480
2021-04-06 07:00 2.52 368 4880 (1997) 217 (1995) 821 226 257 306 340 524 964 1080 1570 3480
2021-04-06 06:30 2.52 368 4880 (1997) 217 (1995) 821 226 257 306 340 524 964 1080 1570 3480
2021-04-06 06:00 2.53 372 4880 (1997) 217 (1995) 821 226 257 306 340 524 964 1080 1570 3480
2021-04-06 05:30 2.53 372 4880 (1997) 217 (1995) 821 226 257 306 340 524 964 1080 1570 3480
2021-04-06 05:00 2.53 372 4880 (1997) 217 (1995) 821 226 257 306 340 524 964 1080 1570 3480
2021-04-06 04:30 2.53 372 4880 (1997) 217 (1995) 821 226 257 306 340 524 964 1080 1570 3480
2021-04-06 04:00 2.53 372 4880 (1997) 217 (1995) 821 226 257 306 340 524 964 1080 1570 3480
2021-04-06 03:30 2.54 375 4880 (1997) 217 (1995) 821 226 257 306 340 524 964 1080 1570 3480
2021-04-06 03:00 2.54 375 4880 (1997) 217 (1995) 821 226 257 306 340 524 964 1080 1570 3480
2021-04-06 02:30 2.54 375 4880 (1997) 217 (1995) 821 226 257 306 340 524 964 1080 1570 3480
2021-04-06 02:00 2.54 375 4880 (1997) 217 (1995) 821 226 257 306 340 524 964 1080 1570 3480
2021-04-06 01:30 2.54 375 4880 (1997) 217 (1995) 821 226 257 306 340 524 964 1080 1570 3480
2021-04-06 01:00 2.55 379 4880 (1997) 217 (1995) 821 226 257 306 340 524 964 1080 1570 3480
2021-04-06 00:30 2.55 379 4880 (1997) 217 (1995) 821 226 257 306 340 524 964 1080 1570 3480
2021-04-06 00:00 2.55 379 4880 (1997) 217 (1995) 821 226 257 306 340 524 964 1080 1570 3480
2021-04-05 23:30 2.55 379 8210 (1997) 231 (1995) 1100 247 277 333 388 579 1280 1630 2500 4800
2021-04-05 23:00 2.55 379 8210 (1997) 231 (1995) 1100 247 277 333 388 579 1280 1630 2500 4800
2021-04-05 22:30 2.56 383 8210 (1997) 231 (1995) 1100 247 277 333 388 579 1280 1630 2500 4800
2021-04-05 22:00 2.56 383 8210 (1997) 231 (1995) 1100 247 277 333 388 579 1280 1630 2500 4800
2021-04-05 21:30 2.56 383 8210 (1997) 231 (1995) 1100 247 277 333 388 579 1280 1630 2500 4800
2021-04-05 21:00 2.57 387 8210 (1997) 231 (1995) 1100 247 277 333 388 579 1280 1630 2500 4800
2021-04-05 20:30 2.56 383 8210 (1997) 231 (1995) 1100 247 277 333 388 579 1280 1630 2500 4800
2021-04-05 20:00 2.57 387 8210 (1997) 231 (1995) 1100 247 277 333 388 579 1280 1630 2500 4800
2021-04-05 19:30 2.57 387 8210 (1997) 231 (1995) 1100 247 277 333 388 579 1280 1630 2500 4800
2021-04-05 19:00 2.58 390 8210 (1997) 231 (1995) 1100 247 277 333 388 579 1280 1630 2500 4800
2021-04-05 18:30 2.58 390 8210 (1997) 231 (1995) 1100 247 277 333 388 579 1280 1630 2500 4800
2021-04-05 18:00 2.58 390 8210 (1997) 231 (1995) 1100 247 277 333 388 579 1280 1630 2500 4800
2021-04-05 17:30 2.58 390 8210 (1997) 231 (1995) 1100 247 277 333 388 579 1280 1630 2500 4800
2021-04-05 17:00 2.59 394 8210 (1997) 231 (1995) 1100 247 277 333 388 579 1280 1630 2500 4800
2021-04-05 16:30 2.60 398 8210 (1997) 231 (1995) 1100 247 277 333 388 579 1280 1630 2500 4800
2021-04-05 16:00 2.59 394 8210 (1997) 231 (1995) 1100 247 277 333 388 579 1280 1630 2500 4800
2021-04-05 15:30 2.59 394 8210 (1997) 231 (1995) 1100 247 277 333 388 579 1280 1630 2500 4800
2021-04-05 15:00 2.59 394 8210 (1997) 231 (1995) 1100 247 277 333 388 579 1280 1630 2500 4800
2021-04-05 14:30 2.59 394 8210 (1997) 231 (1995) 1100 247 277 333 388 579 1280 1630 2500 4800
2021-04-05 14:00 2.59 394 8210 (1997) 231 (1995) 1100 247 277 333 388 579 1280 1630 2500 4800
2021-04-05 13:30 2.60 398 8210 (1997) 231 (1995) 1100 247 277 333 388 579 1280 1630 2500 4800
2021-04-05 13:00 2.60 398 8210 (1997) 231 (1995) 1100 247 277 333 388 579 1280 1630 2500 4800
2021-04-05 12:30 2.60 398 8210 (1997) 231 (1995) 1100 247 277 333 388 579 1280 1630 2500 4800
2021-04-05 12:00 2.60 398 8210 (1997) 231 (1995) 1100 247 277 333 388 579 1280 1630 2500 4800
2021-04-05 11:30 2.60 398 8210 (1997) 231 (1995) 1100 247 277 333 388 579 1280 1630 2500 4800
2021-04-05 11:00 2.60 398 8210 (1997) 231 (1995) 1100 247 277 333 388 579 1280 1630 2500 4800
2021-04-05 10:30 2.60 398 8210 (1997) 231 (1995) 1100 247 277 333 388 579 1280 1630 2500 4800
2021-04-05 10:00 2.60 398 8210 (1997) 231 (1995) 1100 247 277 333 388 579 1280 1630 2500 4800
2021-04-05 09:30 2.60 398 8210 (1997) 231 (1995) 1100 247 277 333 388 579 1280 1630 2500 4800
2021-04-05 09:00 2.60 398 8210 (1997) 231 (1995) 1100 247 277 333 388 579 1280 1630 2500 4800
2021-04-05 08:30 2.61 402 8210 (1997) 231 (1995) 1100 247 277 333 388 579 1280 1630 2500 4800
2021-04-05 08:00 2.61 402 8210 (1997) 231 (1995) 1100 247 277 333 388 579 1280 1630 2500 4800
2021-04-05 07:30 2.61 402 8210 (1997) 231 (1995) 1100 247 277 333 388 579 1280 1630 2500 4800
2021-04-05 07:00 2.62 406 8210 (1997) 231 (1995) 1100 247 277 333 388 579 1280 1630 2500 4800
2021-04-05 06:30 2.62 406 8210 (1997) 231 (1995) 1100 247 277 333 388 579 1280 1630 2500 4800
2021-04-05 06:00 2.62 406 8210 (1997) 231 (1995) 1100 247 277 333 388 579 1280 1630 2500 4800
2021-04-05 05:30 2.62 406 8210 (1997) 231 (1995) 1100 247 277 333 388 579 1280 1630 2500 4800
2021-04-05 05:00 2.63 410 8210 (1997) 231 (1995) 1100 247 277 333 388 579 1280 1630 2500 4800
2021-04-05 04:30 2.63 410 8210 (1997) 231 (1995) 1100 247 277 333 388 579 1280 1630 2500 4800
2021-04-05 04:00 2.63 410 8210 (1997) 231 (1995) 1100 247 277 333 388 579 1280 1630 2500 4800
2021-04-05 03:30 2.64 414 8210 (1997) 231 (1995) 1100 247 277 333 388 579 1280 1630 2500 4800
2021-04-05 03:00 2.64 414 8210 (1997) 231 (1995) 1100 247 277 333 388 579 1280 1630 2500 4800
2021-04-05 02:30 2.64 414 8210 (1997) 231 (1995) 1100 247 277 333 388 579 1280 1630 2500 4800
2021-04-05 02:00 2.64 414 8210 (1997) 231 (1995) 1100 247 277 333 388 579 1280 1630 2500 4800
2021-04-05 01:30 2.64 414 8210 (1997) 231 (1995) 1100 247 277 333 388 579 1280 1630 2500 4800
2021-04-05 01:00 2.64 414 8210 (1997) 231 (1995) 1100 247 277 333 388 579 1280 1630 2500 4800
2021-04-05 00:30 2.65 418 8210 (1997) 231 (1995) 1100 247 277 333 388 579 1280 1630 2500 4800
2021-04-05 00:00 2.65 418 8210 (1997) 231 (1995) 1100 247 277 333 388 579 1280 1630 2500 4800
2021-04-04 23:30 2.65 418 7590 (2008) 242 (1995) 1140 269 291 349 367 565 1110 1570 3310 5390
2021-04-04 23:00 2.65 418 7590 (2008) 242 (1995) 1140 269 291 349 367 565 1110 1570 3310 5390
2021-04-04 22:30 2.66 422 7590 (2008) 242 (1995) 1140 269 291 349 367 565 1110 1570 3310 5390
2021-04-04 22:00 2.66 422 7590 (2008) 242 (1995) 1140 269 291 349 367 565 1110 1570 3310 5390
2021-04-04 21:30 2.66 422 7590 (2008) 242 (1995) 1140 269 291 349 367 565 1110 1570 3310 5390
2021-04-04 21:00 2.67 426 7590 (2008) 242 (1995) 1140 269 291 349 367 565 1110 1570 3310 5390
2021-04-04 20:30 2.67 426 7590 (2008) 242 (1995) 1140 269 291 349 367 565 1110 1570 3310 5390
2021-04-04 20:00 2.67 426 7590 (2008) 242 (1995) 1140 269 291 349 367 565 1110 1570 3310 5390
2021-04-04 19:30 2.68 430 7590 (2008) 242 (1995) 1140 269 291 349 367 565 1110 1570 3310 5390
2021-04-04 19:00 2.68 430 7590 (2008) 242 (1995) 1140 269 291 349 367 565 1110 1570 3310 5390
2021-04-04 18:30 2.69 434 7590 (2008) 242 (1995) 1140 269 291 349 367 565 1110 1570 3310 5390
2021-04-04 18:00 2.69 434 7590 (2008) 242 (1995) 1140 269 291 349 367 565 1110 1570 3310 5390
2021-04-04 17:30 2.69 434 7590 (2008) 242 (1995) 1140 269 291 349 367 565 1110 1570 3310 5390
2021-04-04 17:00 2.69 434 7590 (2008) 242 (1995) 1140 269 291 349 367 565 1110 1570 3310 5390
2021-04-04 16:30 2.69 434 7590 (2008) 242 (1995) 1140 269 291 349 367 565 1110 1570 3310 5390
2021-04-04 16:00 2.70 438 7590 (2008) 242 (1995) 1140 269 291 349 367 565 1110 1570 3310 5390
2021-04-04 15:30 2.70 438 7590 (2008) 242 (1995) 1140 269 291 349 367 565 1110 1570 3310 5390
2021-04-04 15:00 2.70 438 7590 (2008) 242 (1995) 1140 269 291 349 367 565 1110 1570 3310 5390
2021-04-04 14:30 2.70 438 7590 (2008) 242 (1995) 1140 269 291 349 367 565 1110 1570 3310 5390
2021-04-04 14:00 2.70 438 7590 (2008) 242 (1995) 1140 269 291 349 367 565 1110 1570 3310 5390
2021-04-04 13:30 2.70 438 7590 (2008) 242 (1995) 1140 269 291 349 367 565 1110 1570 3310 5390
2021-04-04 13:00 2.71 442 7590 (2008) 242 (1995) 1140 269 291 349 367 565 1110 1570 3310 5390
2021-04-04 12:30 2.71 442 7590 (2008) 242 (1995) 1140 269 291 349 367 565 1110 1570 3310 5390
2021-04-04 12:00 2.71 442 7590 (2008) 242 (1995) 1140 269 291 349 367 565 1110 1570 3310 5390
2021-04-04 11:30 2.71 442 7590 (2008) 242 (1995) 1140 269 291 349 367 565 1110 1570 3310 5390
2021-04-04 11:00 2.71 442 7590 (2008) 242 (1995) 1140 269 291 349 367 565 1110 1570 3310 5390
2021-04-04 10:30 2.71 442 7590 (2008) 242 (1995) 1140 269 291 349 367 565 1110 1570 3310 5390
2021-04-04 10:00 2.72 446 7590 (2008) 242 (1995) 1140 269 291 349 367 565 1110 1570 3310 5390
2021-04-04 09:30 2.72 446 7590 (2008) 242 (1995) 1140 269 291 349 367 565 1110 1570 3310 5390
2021-04-04 09:00 2.72 446 7590 (2008) 242 (1995) 1140 269 291 349 367 565 1110 1570 3310 5390
2021-04-04 08:30 2.72 446 7590 (2008) 242 (1995) 1140 269 291 349 367 565 1110 1570 3310 5390
2021-04-04 08:00 2.72 446 7590 (2008) 242 (1995) 1140 269 291 349 367 565 1110 1570 3310 5390
2021-04-04 07:30 2.73 451 7590 (2008) 242 (1995) 1140 269 291 349 367 565 1110 1570 3310 5390
2021-04-04 07:00 2.73 451 7590 (2008) 242 (1995) 1140 269 291 349 367 565 1110 1570 3310 5390
2021-04-04 06:30 2.72 446 7590 (2008) 242 (1995) 1140 269 291 349 367 565 1110 1570 3310 5390
2021-04-04 06:00 2.73 451 7590 (2008) 242 (1995) 1140 269 291 349 367 565 1110 1570 3310 5390
2021-04-04 05:30 2.73 451 7590 (2008) 242 (1995) 1140 269 291 349 367 565 1110 1570 3310 5390
2021-04-04 05:00 2.73 451 7590 (2008) 242 (1995) 1140 269 291 349 367 565 1110 1570 3310 5390
2021-04-04 04:30 2.74 455 7590 (2008) 242 (1995) 1140 269 291 349 367 565 1110 1570 3310 5390
2021-04-04 04:00 2.74 455 7590 (2008) 242 (1995) 1140 269 291 349 367 565 1110 1570 3310 5390
2021-04-04 03:30 2.74 455 7590 (2008) 242 (1995) 1140 269 291 349 367 565 1110 1570 3310 5390
2021-04-04 03:00 2.75 459 7590 (2008) 242 (1995) 1140 269 291 349 367 565 1110 1570 3310 5390
2021-04-04 02:30 2.75 459 7590 (2008) 242 (1995) 1140 269 291 349 367 565 1110 1570 3310 5390
2021-04-04 02:00 2.75 459 7590 (2008) 242 (1995) 1140 269 291 349 367 565 1110 1570 3310 5390
2021-04-04 01:30 2.75 459 7590 (2008) 242 (1995) 1140 269 291 349 367 565 1110 1570 3310 5390
2021-04-04 01:00 2.76 464 7590 (2008) 242 (1995) 1140 269 291 349 367 565 1110 1570 3310 5390
2021-04-04 00:30 2.76 464 7590 (2008) 242 (1995) 1140 269 291 349 367 565 1110 1570 3310 5390
2021-04-04 00:00 2.76 464 7590 (2008) 242 (1995) 1140 269 291 349 367 565 1110 1570 3310 5390
2021-04-03 23:30 2.77 468 3010 (2008) 239 (2012) 834 250 304 323 338 591 1030 1200 2080 2550
2021-04-03 23:00 2.77 468 3010 (2008) 239 (2012) 834 250 304 323 338 591 1030 1200 2080 2550
2021-04-03 22:30 2.77 468 3010 (2008) 239 (2012) 834 250 304 323 338 591 1030 1200 2080 2550
2021-04-03 22:00 2.78 472 3010 (2008) 239 (2012) 834 250 304 323 338 591 1030 1200 2080 2550
2021-04-03 21:30 2.78 472 3010 (2008) 239 (2012) 834 250 304 323 338 591 1030 1200 2080 2550
2021-04-03 21:00 2.78 472 3010 (2008) 239 (2012) 834 250 304 323 338 591 1030 1200 2080 2550
2021-04-03 20:30 2.79 477 3010 (2008) 239 (2012) 834 250 304 323 338 591 1030 1200 2080 2550
2021-04-03 20:00 2.79 477 3010 (2008) 239 (2012) 834 250 304 323 338 591 1030 1200 2080 2550
2021-04-03 19:30 2.80 481 3010 (2008) 239 (2012) 834 250 304 323 338 591 1030 1200 2080 2550
2021-04-03 19:00 2.80 481 3010 (2008) 239 (2012) 834 250 304 323 338 591 1030 1200 2080 2550
2021-04-03 18:30 2.80 481 3010 (2008) 239 (2012) 834 250 304 323 338 591 1030 1200 2080 2550
2021-04-03 18:00 2.81 486 3010 (2008) 239 (2012) 834 250 304 323 338 591 1030 1200 2080 2550
2021-04-03 17:30 2.81 486 3010 (2008) 239 (2012) 834 250 304 323 338 591 1030 1200 2080 2550
2021-04-03 17:00 2.81 486 3010 (2008) 239 (2012) 834 250 304 323 338 591 1030 1200 2080 2550
2021-04-03 16:30 2.81 486 3010 (2008) 239 (2012) 834 250 304 323 338 591 1030 1200 2080 2550
2021-04-03 16:00 2.82 490 3010 (2008) 239 (2012) 834 250 304 323 338 591 1030 1200 2080 2550
2021-04-03 15:30 2.82 490 3010 (2008) 239 (2012) 834 250 304 323 338 591 1030 1200 2080 2550
2021-04-03 15:00 2.83 495 3010 (2008) 239 (2012) 834 250 304 323 338 591 1030 1200 2080 2550
2021-04-03 14:30 2.83 495 3010 (2008) 239 (2012) 834 250 304 323 338 591 1030 1200 2080 2550
2021-04-03 14:00 2.83 495 3010 (2008) 239 (2012) 834 250 304 323 338 591 1030 1200 2080 2550
2021-04-03 13:30 2.83 495 3010 (2008) 239 (2012) 834 250 304 323 338 591 1030 1200 2080 2550
2021-04-03 13:00 2.84 500 3010 (2008) 239 (2012) 834 250 304 323 338 591 1030 1200 2080 2550
2021-04-03 12:30 2.84 500 3010 (2008) 239 (2012) 834 250 304 323 338 591 1030 1200 2080 2550
2021-04-03 12:00 2.85 504 3010 (2008) 239 (2012) 834 250 304 323 338 591 1030 1200 2080 2550
2021-04-03 11:30 2.84 500 3010 (2008) 239 (2012) 834 250 304 323 338 591 1030 1200 2080 2550
2021-04-03 11:00 2.84 500 3010 (2008) 239 (2012) 834 250 304 323 338 591 1030 1200 2080 2550
2021-04-03 10:30 2.85 504 3010 (2008) 239 (2012) 834 250 304 323 338 591 1030 1200 2080 2550
2021-04-03 10:00 2.85 504 3010 (2008) 239 (2012) 834 250 304 323 338 591 1030 1200 2080 2550
2021-04-03 09:30 2.85 504 3010 (2008) 239 (2012) 834 250 304 323 338 591 1030 1200 2080 2550
2021-04-03 09:00 2.85 504 3010 (2008) 239 (2012) 834 250 304 323 338 591 1030 1200 2080 2550
2021-04-03 08:30 2.85 504 3010 (2008) 239 (2012) 834 250 304 323 338 591 1030 1200 2080 2550
2021-04-03 08:00 2.85 504 3010 (2008) 239 (2012) 834 250 304 323 338 591 1030 1200 2080 2550
2021-04-03 07:30 2.86 509 3010 (2008) 239 (2012) 834 250 304 323 338 591 1030 1200 2080 2550
2021-04-03 07:00 2.86 509 3010 (2008) 239 (2012) 834 250 304 323 338 591 1030 1200 2080 2550
2021-04-03 06:30 2.86 509 3010 (2008) 239 (2012) 834 250 304 323 338 591 1030 1200 2080 2550
2021-04-03 06:00 2.87 514 3010 (2008) 239 (2012) 834 250 304 323 338 591 1030 1200 2080 2550
2021-04-03 05:30 2.87 514 3010 (2008) 239 (2012) 834 250 304 323 338 591 1030 1200 2080 2550
2021-04-03 05:00 2.87 514 3010 (2008) 239 (2012) 834 250 304 323 338 591 1030 1200 2080 2550
2021-04-03 04:30 2.87 514 3010 (2008) 239 (2012) 834 250 304 323 338 591 1030 1200 2080 2550
2021-04-03 04:00 2.88 518 3010 (2008) 239 (2012) 834 250 304 323 338 591 1030 1200 2080 2550
2021-04-03 03:30 2.88 518 3010 (2008) 239 (2012) 834 250 304 323 338 591 1030 1200 2080 2550
2021-04-03 03:00 2.87 514 3010 (2008) 239 (2012) 834 250 304 323 338 591 1030 1200 2080 2550
2021-04-03 02:30 2.88 518 3010 (2008) 239 (2012) 834 250 304 323 338 591 1030 1200 2080 2550
2021-04-03 02:00 2.88 518 3010 (2008) 239 (2012) 834 250 304 323 338 591 1030 1200 2080 2550
2021-04-03 01:30 2.89 523 3010 (2008) 239 (2012) 834 250 304 323 338 591 1030 1200 2080 2550
2021-04-03 01:00 2.89 523 3010 (2008) 239 (2012) 834 250 304 323 338 591 1030 1200 2080 2550
2021-04-03 00:30 2.89 523 3010 (2008) 239 (2012) 834 250 304 323 338 591 1030 1200 2080 2550
2021-04-03 00:00 2.89 523 3010 (2008) 239 (2012) 834 250 304 323 338 591 1030 1200 2080 2550
2021-04-02 23:30 2.90 528 2850 (2008) 222 (2001) 782 247 287 344 364 539 1010 1270 1560 2510
2021-04-02 23:00 2.90 528 2850 (2008) 222 (2001) 782 247 287 344 364 539 1010 1270 1560 2510
2021-04-02 22:30 2.91 533 2850 (2008) 222 (2001) 782 247 287 344 364 539 1010 1270 1560 2510
2021-04-02 22:00 2.91 533 2850 (2008) 222 (2001) 782 247 287 344 364 539 1010 1270 1560 2510
2021-04-02 21:30 2.91 533 2850 (2008) 222 (2001) 782 247 287 344 364 539 1010 1270 1560 2510
2021-04-02 21:00 2.92 538 2850 (2008) 222 (2001) 782 247 287 344 364 539 1010 1270 1560 2510
2021-04-02 20:30 2.92 538 2850 (2008) 222 (2001) 782 247 287 344 364 539 1010 1270 1560 2510
2021-04-02 20:00 2.92 538 2850 (2008) 222 (2001) 782 247 287 344 364 539 1010 1270 1560 2510
2021-04-02 19:30 2.92 538 2850 (2008) 222 (2001) 782 247 287 344 364 539 1010 1270 1560 2510
2021-04-02 19:00 2.93 543 2850 (2008) 222 (2001) 782 247 287 344 364 539 1010 1270 1560 2510
2021-04-02 18:30 2.94 548 2850 (2008) 222 (2001) 782 247 287 344 364 539 1010 1270 1560 2510
2021-04-02 18:00 2.94 548 2850 (2008) 222 (2001) 782 247 287 344 364 539 1010 1270 1560 2510
2021-04-02 17:30 2.95 553 2850 (2008) 222 (2001) 782 247 287 344 364 539 1010 1270 1560 2510
2021-04-02 17:00 2.95 553 2850 (2008) 222 (2001) 782 247 287 344 364 539 1010 1270 1560 2510
2021-04-02 16:30 2.96 558 2850 (2008) 222 (2001) 782 247 287 344 364 539 1010 1270 1560 2510
2021-04-02 16:00 2.96 558 2850 (2008) 222 (2001) 782 247 287 344 364 539 1010 1270 1560 2510
2021-04-02 15:30 2.96 558 2850 (2008) 222 (2001) 782 247 287 344 364 539 1010 1270 1560 2510
2021-04-02 15:00 2.96 558 2850 (2008) 222 (2001) 782 247 287 344 364 539 1010 1270 1560 2510
2021-04-02 14:30 2.96 558 2850 (2008) 222 (2001) 782 247 287 344 364 539 1010 1270 1560 2510
2021-04-02 14:00 2.97 563 2850 (2008) 222 (2001) 782 247 287 344 364 539 1010 1270 1560 2510
2021-04-02 13:30 2.97 563 2850 (2008) 222 (2001) 782 247 287 344 364 539 1010 1270 1560 2510
2021-04-02 13:00 2.97 563 2850 (2008) 222 (2001) 782 247 287 344 364 539 1010 1270 1560 2510
2021-04-02 12:30 2.98 568 2850 (2008) 222 (2001) 782 247 287 344 364 539 1010 1270 1560 2510
2021-04-02 12:00 2.98 568 2850 (2008) 222 (2001) 782 247 287 344 364 539 1010 1270 1560 2510
2021-04-02 11:30 2.98 568 2850 (2008) 222 (2001) 782 247 287 344 364 539 1010 1270 1560 2510
2021-04-02 11:00 2.99 573 2850 (2008) 222 (2001) 782 247 287 344 364 539 1010 1270 1560 2510
2021-04-02 10:30 2.99 573 2850 (2008) 222 (2001) 782 247 287 344 364 539 1010 1270 1560 2510
2021-04-02 10:00 2.99 573 2850 (2008) 222 (2001) 782 247 287 344 364 539 1010 1270 1560 2510
2021-04-02 09:30 3.00 578 2850 (2008) 222 (2001) 782 247 287 344 364 539 1010 1270 1560 2510
2021-04-02 09:00 3.00 578 2850 (2008) 222 (2001) 782 247 287 344 364 539 1010 1270 1560 2510
2021-04-02 08:30 3.01 584 2850 (2008) 222 (2001) 782 247 287 344 364 539 1010 1270 1560 2510
2021-04-02 08:00 3.01 584 2850 (2008) 222 (2001) 782 247 287 344 364 539 1010 1270 1560 2510
2021-04-02 07:30 3.02 589 2850 (2008) 222 (2001) 782 247 287 344 364 539 1010 1270 1560 2510
2021-04-02 07:00 3.03 594 2850 (2008) 222 (2001) 782 247 287 344 364 539 1010 1270 1560 2510
2021-04-02 06:30 3.03 594 2850 (2008) 222 (2001) 782 247 287 344 364 539 1010 1270 1560 2510
2021-04-02 06:00 3.03 594 2850 (2008) 222 (2001) 782 247 287 344 364 539 1010 1270 1560 2510
2021-04-02 05:30 3.03 594 2850 (2008) 222 (2001) 782 247 287 344 364 539 1010 1270 1560 2510
2021-04-02 05:00 3.04 599 2850 (2008) 222 (2001) 782 247 287 344 364 539 1010 1270 1560 2510
2021-04-02 04:30 3.05 605 2850 (2008) 222 (2001) 782 247 287 344 364 539 1010 1270 1560 2510
2021-04-02 04:00 3.05 605 2850 (2008) 222 (2001) 782 247 287 344 364 539 1010 1270 1560 2510
2021-04-02 03:30 3.05 605 2850 (2008) 222 (2001) 782 247 287 344 364 539 1010 1270 1560 2510
2021-04-02 03:00 3.06 610 2850 (2008) 222 (2001) 782 247 287 344 364 539 1010 1270 1560 2510
2021-04-02 02:30 3.06 610 2850 (2008) 222 (2001) 782 247 287 344 364 539 1010 1270 1560 2510
2021-04-02 02:00 3.07 616 2850 (2008) 222 (2001) 782 247 287 344 364 539 1010 1270 1560 2510
2021-04-02 01:30 3.07 616 2850 (2008) 222 (2001) 782 247 287 344 364 539 1010 1270 1560 2510
2021-04-02 01:00 3.08 621 2850 (2008) 222 (2001) 782 247 287 344 364 539 1010 1270 1560 2510
2021-04-02 00:30 3.08 621 2850 (2008) 222 (2001) 782 247 287 344 364 539 1010 1270 1560 2510
2021-04-02 00:00 3.09 627 2850 (2008) 222 (2001) 782 247 287 344 364 539 1010 1270 1560 2510
2021-04-01 23:30 3.08 621 11700 (2008) 222 (2001) 1270 254 309 373 397 650 1390 1740 2250 6330
2021-04-01 23:00 3.09 627 11700 (2008) 222 (2001) 1270 254 309 373 397 650 1390 1740 2250 6330
2021-04-01 22:30 3.10 632 11700 (2008) 222 (2001) 1270 254 309 373 397 650 1390 1740 2250 6330
2021-04-01 22:00 3.10 632 11700 (2008) 222 (2001) 1270 254 309 373 397 650 1390 1740 2250 6330
2021-04-01 21:30 3.10 632 11700 (2008) 222 (2001) 1270 254 309 373 397 650 1390 1740 2250 6330
2021-04-01 21:00 3.10 632 11700 (2008) 222 (2001) 1270 254 309 373 397 650 1390 1740 2250 6330
2021-04-01 20:30 3.11 638 11700 (2008) 222 (2001) 1270 254 309 373 397 650 1390 1740 2250 6330
2021-04-01 20:00 3.11 638 11700 (2008) 222 (2001) 1270 254 309 373 397 650 1390 1740 2250 6330
2021-04-01 19:30 3.12 644 11700 (2008) 222 (2001) 1270 254 309 373 397 650 1390 1740 2250 6330
2021-04-01 19:00 3.12 644 11700 (2008) 222 (2001) 1270 254 309 373 397 650 1390 1740 2250 6330
2021-04-01 18:30 3.12 644 11700 (2008) 222 (2001) 1270 254 309 373 397 650 1390 1740 2250 6330
2021-04-01 18:00 3.13 649 11700 (2008) 222 (2001) 1270 254 309 373 397 650 1390 1740 2250 6330
2021-04-01 17:30 3.13 649 11700 (2008) 222 (2001) 1270 254 309 373 397 650 1390 1740 2250 6330
2021-04-01 17:00 3.14 655 11700 (2008) 222 (2001) 1270 254 309 373 397 650 1390 1740 2250 6330
2021-04-01 16:30 3.14 655 11700 (2008) 222 (2001) 1270 254 309 373 397 650 1390 1740 2250 6330
2021-04-01 16:00 3.14 655 11700 (2008) 222 (2001) 1270 254 309 373 397 650 1390 1740 2250 6330
2021-04-01 15:30 3.15 661 11700 (2008) 222 (2001) 1270 254 309 373 397 650 1390 1740 2250 6330
2021-04-01 15:00 3.15 661 11700 (2008) 222 (2001) 1270 254 309 373 397 650 1390 1740 2250 6330
2021-04-01 14:30 3.15 661 11700 (2008) 222 (2001) 1270 254 309 373 397 650 1390 1740 2250 6330
2021-04-01 14:00 3.16 667 11700 (2008) 222 (2001) 1270 254 309 373 397 650 1390 1740 2250 6330
2021-04-01 13:30 3.17 673 11700 (2008) 222 (2001) 1270 254 309 373 397 650 1390 1740 2250 6330
2021-04-01 13:00 3.18 678 11700 (2008) 222 (2001) 1270 254 309 373 397 650 1390 1740 2250 6330
2021-04-01 12:30 3.17 673 11700 (2008) 222 (2001) 1270 254 309 373 397 650 1390 1740 2250 6330
2021-04-01 12:00 3.18 678 11700 (2008) 222 (2001) 1270 254 309 373 397 650 1390 1740 2250 6330
2021-04-01 11:30 3.19 684 11700 (2008) 222 (2001) 1270 254 309 373 397 650 1390 1740 2250 6330
2021-04-01 11:00 3.21 696 11700 (2008) 222 (2001) 1270 254 309 373 397 650 1390 1740 2250 6330
2021-04-01 10:30 3.20 690 11700 (2008) 222 (2001) 1270 254 309 373 397 650 1390 1740 2250 6330
2021-04-01 10:00 3.21 696 11700 (2008) 222 (2001) 1270 254 309 373 397 650 1390 1740 2250 6330
2021-04-01 09:30 3.22 702 11700 (2008) 222 (2001) 1270 254 309 373 397 650 1390 1740 2250 6330
2021-04-01 09:00 3.22 702 11700 (2008) 222 (2001) 1270 254 309 373 397 650 1390 1740 2250 6330
2021-04-01 08:30 3.23 709 11700 (2008) 222 (2001) 1270 254 309 373 397 650 1390 1740 2250 6330
2021-04-01 08:00 3.24 715 11700 (2008) 222 (2001) 1270 254 309 373 397 650 1390 1740 2250 6330
2021-04-01 07:30 3.25 721 11700 (2008) 222 (2001) 1270 254 309 373 397 650 1390 1740 2250 6330
2021-04-01 07:00 3.25 721 11700 (2008) 222 (2001) 1270 254 309 373 397 650 1390 1740 2250 6330
2021-04-01 06:30 3.26 727 11700 (2008) 222 (2001) 1270 254 309 373 397 650 1390 1740 2250 6330
2021-04-01 06:00 3.27 733 11700 (2008) 222 (2001) 1270 254 309 373 397 650 1390 1740 2250 6330
2021-04-01 05:30 3.27 733 11700 (2008) 222 (2001) 1270 254 309 373 397 650 1390 1740 2250 6330
2021-04-01 05:00 3.28 740 11700 (2008) 222 (2001) 1270 254 309 373 397 650 1390 1740 2250 6330
2021-04-01 04:30 3.29 746 11700 (2008) 222 (2001) 1270 254 309 373 397 650 1390 1740 2250 6330
2021-04-01 04:00 3.29 746 11700 (2008) 222 (2001) 1270 254 309 373 397 650 1390 1740 2250 6330
2021-04-01 03:30 3.30 753 11700 (2008) 222 (2001) 1270 254 309 373 397 650 1390 1740 2250 6330
2021-04-01 03:00 3.31 759 11700 (2008) 222 (2001) 1270 254 309 373 397 650 1390 1740 2250 6330
2021-04-01 02:30 3.31 759 11700 (2008) 222 (2001) 1270 254 309 373 397 650 1390 1740 2250 6330
2021-04-01 02:00 3.32 766 11700 (2008) 222 (2001) 1270 254 309 373 397 650 1390 1740 2250 6330
2021-04-01 01:30 3.33 772 11700 (2008) 222 (2001) 1270 254 309 373 397 650 1390 1740 2250 6330
2021-04-01 01:00 3.34 778 11700 (2008) 222 (2001) 1270 254 309 373 397 650 1390 1740 2250 6330
2021-04-01 00:30 3.34 778 11700 (2008) 222 (2001) 1270 254 309 373 397 650 1390 1740 2250 6330
2021-04-01 00:00 3.35 784 11700 (2008) 222 (2001) 1270 254 309 373 397 650 1390 1740 2250 6330
2021-03-31 23:30 3.36 790 7100 (1989) 216 (2001) 1440 273 341 406 428 773 1390 2510 4400 5860
2021-03-31 23:00 3.37 796 7100 (1989) 216 (2001) 1440 273 341 406 428 773 1390 2510 4400 5860
2021-03-31 22:30 3.37 796 7100 (1989) 216 (2001) 1440 273 341 406 428 773 1390 2510 4400 5860
2021-03-31 22:00 3.38 802 7100 (1989) 216 (2001) 1440 273 341 406 428 773 1390 2510 4400 5860
2021-03-31 21:30 3.39 808 7100 (1989) 216 (2001) 1440 273 341 406 428 773 1390 2510 4400 5860
2021-03-31 21:00 3.40 814 7100 (1989) 216 (2001) 1440 273 341 406 428 773 1390 2510 4400 5860
2021-03-31 20:30 3.41 820 7100 (1989) 216 (2001) 1440 273 341 406 428 773 1390 2510 4400 5860
2021-03-31 20:00 3.42 826 7100 (1989) 216 (2001) 1440 273 341 406 428 773 1390 2510 4400 5860
2021-03-31 19:30 3.43 832 7100 (1989) 216 (2001) 1440 273 341 406 428 773 1390 2510 4400 5860
2021-03-31 19:00 3.43 832 7100 (1989) 216 (2001) 1440 273 341 406 428 773 1390 2510 4400 5860
2021-03-31 18:30 3.44 838 7100 (1989) 216 (2001) 1440 273 341 406 428 773 1390 2510 4400 5860
2021-03-31 18:00 3.46 851 7100 (1989) 216 (2001) 1440 273 341 406 428 773 1390 2510 4400 5860
2021-03-31 17:30 3.47 857 7100 (1989) 216 (2001) 1440 273 341 406 428 773 1390 2510 4400 5860
2021-03-31 17:00 3.48 863 7100 (1989) 216 (2001) 1440 273 341 406 428 773 1390 2510 4400 5860
2021-03-31 16:30 3.48 863 7100 (1989) 216 (2001) 1440 273 341 406 428 773 1390 2510 4400 5860
2021-03-31 16:00 3.49 870 7100 (1989) 216 (2001) 1440 273 341 406 428 773 1390 2510 4400 5860
2021-03-31 15:30 3.51 883 7100 (1989) 216 (2001) 1440 273 341 406 428 773 1390 2510 4400 5860
2021-03-31 15:00 3.51 883 7100 (1989) 216 (2001) 1440 273 341 406 428 773 1390 2510 4400 5860
2021-03-31 14:30 3.53 896 7100 (1989) 216 (2001) 1440 273 341 406 428 773 1390 2510 4400 5860
2021-03-31 14:00 3.52 889 7100 (1989) 216 (2001) 1440 273 341 406 428 773 1390 2510 4400 5860
2021-03-31 13:30 3.52 889 7100 (1989) 216 (2001) 1440 273 341 406 428 773 1390 2510 4400 5860
2021-03-31 13:00 3.55 909 7100 (1989) 216 (2001) 1440 273 341 406 428 773 1390 2510 4400 5860
2021-03-31 12:30 3.55 909 7100 (1989) 216 (2001) 1440 273 341 406 428 773 1390 2510 4400 5860
2021-03-31 12:00 3.56 916 7100 (1989) 216 (2001) 1440 273 341 406 428 773 1390 2510 4400 5860
2021-03-31 11:30 3.56 916 7100 (1989) 216 (2001) 1440 273 341 406 428 773 1390 2510 4400 5860
2021-03-31 11:00 3.57 922 7100 (1989) 216 (2001) 1440 273 341 406 428 773 1390 2510 4400 5860
2021-03-31 10:30 3.57 922 7100 (1989) 216 (2001) 1440 273 341 406 428 773 1390 2510 4400 5860
2021-03-31 10:00 3.58 929 7100 (1989) 216 (2001) 1440 273 341 406 428 773 1390 2510 4400 5860
2021-03-31 09:30 3.58 929 7100 (1989) 216 (2001) 1440 273 341 406 428 773 1390 2510 4400 5860
2021-03-31 09:00 3.58 929 7100 (1989) 216 (2001) 1440 273 341 406 428 773 1390 2510 4400 5860
2021-03-31 08:30 3.60 943 7100 (1989) 216 (2001) 1440 273 341 406 428 773 1390 2510 4400 5860
2021-03-31 08:00 3.60 943 7100 (1989) 216 (2001) 1440 273 341 406 428 773 1390 2510 4400 5860
2021-03-31 07:30 3.61 949 7100 (1989) 216 (2001) 1440 273 341 406 428 773 1390 2510 4400 5860
2021-03-31 07:00 3.61 949 7100 (1989) 216 (2001) 1440 273 341 406 428 773 1390 2510 4400 5860
2021-03-31 06:30 3.62 956 7100 (1989) 216 (2001) 1440 273 341 406 428 773 1390 2510 4400 5860
2021-03-31 06:00 3.63 963 7100 (1989) 216 (2001) 1440 273 341 406 428 773 1390 2510 4400 5860
2021-03-31 05:30 3.63 963 7100 (1989) 216 (2001) 1440 273 341 406 428 773 1390 2510 4400 5860
2021-03-31 05:00 3.64 970 7100 (1989) 216 (2001) 1440 273 341 406 428 773 1390 2510 4400 5860
2021-03-31 04:30 3.65 977 7100 (1989) 216 (2001) 1440 273 341 406 428 773 1390 2510 4400 5860
2021-03-31 04:00 3.66 984 7100 (1989) 216 (2001) 1440 273 341 406 428 773 1390 2510 4400 5860
2021-03-31 03:30 3.67 991 7100 (1989) 216 (2001) 1440 273 341 406 428 773 1390 2510 4400 5860
2021-03-31 03:00 3.67 991 7100 (1989) 216 (2001) 1440 273 341 406 428 773 1390 2510 4400 5860
2021-03-31 02:30 3.68 999 7100 (1989) 216 (2001) 1440 273 341 406 428 773 1390 2510 4400 5860
2021-03-31 02:00 3.68 999 7100 (1989) 216 (2001) 1440 273 341 406 428 773 1390 2510 4400 5860
2021-03-31 01:30 3.69 1010 7100 (1989) 216 (2001) 1440 273 341 406 428 773 1390 2510 4400 5860
2021-03-31 01:00 3.70 1010 7100 (1989) 216 (2001) 1440 273 341 406 428 773 1390 2510 4400 5860
2021-03-31 00:30 3.71 1020 7100 (1989) 216 (2001) 1440 273 341 406 428 773 1390 2510 4400 5860
2021-03-31 00:00 3.71 1020 7100 (1989) 216 (2001) 1440 273 341 406 428 773 1390 2510 4400 5860
2021-03-30 23:30 3.72 1030 10500 (2018) 202 (2001) 1600 233 295 449 465 701 1360 1790 4060 9880
2021-03-30 23:00 3.72 1030 10500 (2018) 202 (2001) 1600 233 295 449 465 701 1360 1790 4060 9880
2021-03-30 22:30 3.73 1030 10500 (2018) 202 (2001) 1600 233 295 449 465 701 1360 1790 4060 9880
2021-03-30 22:00 3.74 1040 10500 (2018) 202 (2001) 1600 233 295 449 465 701 1360 1790 4060 9880
2021-03-30 21:30 3.75 1050 10500 (2018) 202 (2001) 1600 233 295 449 465 701 1360 1790 4060 9880
2021-03-30 21:00 3.75 1050 10500 (2018) 202 (2001) 1600 233 295 449 465 701 1360 1790 4060 9880
2021-03-30 20:30 3.76 1060 10500 (2018) 202 (2001) 1600 233 295 449 465 701 1360 1790 4060 9880
2021-03-30 20:00 3.77 1060 10500 (2018) 202 (2001) 1600 233 295 449 465 701 1360 1790 4060 9880
2021-03-30 19:30 3.78 1070 10500 (2018) 202 (2001) 1600 233 295 449 465 701 1360 1790 4060 9880
2021-03-30 19:00 3.79 1080 10500 (2018) 202 (2001) 1600 233 295 449 465 701 1360 1790 4060 9880
2021-03-30 18:30 3.80 1090 10500 (2018) 202 (2001) 1600 233 295 449 465 701 1360 1790 4060 9880
2021-03-30 18:00 3.80 1090 10500 (2018) 202 (2001) 1600 233 295 449 465 701 1360 1790 4060 9880
2021-03-30 17:30 3.81 1100 10500 (2018) 202 (2001) 1600 233 295 449 465 701 1360 1790 4060 9880
2021-03-30 17:00 3.82 1100 10500 (2018) 202 (2001) 1600 233 295 449 465 701 1360 1790 4060 9880
2021-03-30 16:30 3.82 1100 10500 (2018) 202 (2001) 1600 233 295 449 465 701 1360 1790 4060 9880
2021-03-30 16:00 3.84 1120 10500 (2018) 202 (2001) 1600 233 295 449 465 701 1360 1790 4060 9880
2021-03-30 15:30 3.85 1130 10500 (2018) 202 (2001) 1600 233 295 449 465 701 1360 1790 4060 9880
2021-03-30 15:00 3.84 1120 10500 (2018) 202 (2001) 1600 233 295 449 465 701 1360 1790 4060 9880
2021-03-30 14:30 3.86 1130 10500 (2018) 202 (2001) 1600 233 295 449 465 701 1360 1790 4060 9880
2021-03-30 14:00 3.87 1140 10500 (2018) 202 (2001) 1600 233 295 449 465 701 1360 1790 4060 9880
2021-03-30 13:30 3.87 1140 10500 (2018) 202 (2001) 1600 233 295 449 465 701 1360 1790 4060 9880
2021-03-30 13:00 3.88 1150 10500 (2018) 202 (2001) 1600 233 295 449 465 701 1360 1790 4060 9880
2021-03-30 12:30 3.89 1160 10500 (2018) 202 (2001) 1600 233 295 449 465 701 1360 1790 4060 9880
2021-03-30 12:00 3.90 1160 10500 (2018) 202 (2001) 1600 233 295 449 465 701 1360 1790 4060 9880
2021-03-30 11:30 3.92 1180 10500 (2018) 202 (2001) 1600 233 295 449 465 701 1360 1790 4060 9880
2021-03-30 11:00 3.92 1180 10500 (2018) 202 (2001) 1600 233 295 449 465 701 1360 1790 4060 9880
2021-03-30 10:30 3.93 1180 10500 (2018) 202 (2001) 1600 233 295 449 465 701 1360 1790 4060 9880
2021-03-30 10:00 3.95 1200 10500 (2018) 202 (2001) 1600 233 295 449 465 701 1360 1790 4060 9880
2021-03-30 09:30 3.95 1200 10500 (2018) 202 (2001) 1600 233 295 449 465 701 1360 1790 4060 9880
2021-03-30 09:00 3.96 1210 10500 (2018) 202 (2001) 1600 233 295 449 465 701 1360 1790 4060 9880
2021-03-30 08:30 3.96 1210 10500 (2018) 202 (2001) 1600 233 295 449 465 701 1360 1790 4060 9880
2021-03-30 08:00 3.98 1220 10500 (2018) 202 (2001) 1600 233 295 449 465 701 1360 1790 4060 9880
2021-03-30 07:30 3.99 1230 10500 (2018) 202 (2001) 1600 233 295 449 465 701 1360 1790 4060 9880
2021-03-30 07:00 3.99 1230 10500 (2018) 202 (2001) 1600 233 295 449 465 701 1360 1790 4060 9880
2021-03-30 06:30 4.00 1230 10500 (2018) 202 (2001) 1600 233 295 449 465 701 1360 1790 4060 9880
2021-03-30 06:00 4.02 1250 10500 (2018) 202 (2001) 1600 233 295 449 465 701 1360 1790 4060 9880
2021-03-30 05:30 4.03 1260 10500 (2018) 202 (2001) 1600 233 295 449 465 701 1360 1790 4060 9880
2021-03-30 05:00 4.03 1260 10500 (2018) 202 (2001) 1600 233 295 449 465 701 1360 1790 4060 9880
2021-03-30 04:30 4.05 1270 10500 (2018) 202 (2001) 1600 233 295 449 465 701 1360 1790 4060 9880
2021-03-30 04:00 4.06 1280 10500 (2018) 202 (2001) 1600 233 295 449 465 701 1360 1790 4060 9880
2021-03-30 03:30 4.06 1280 10500 (2018) 202 (2001) 1600 233 295 449 465 701 1360 1790 4060 9880
2021-03-30 03:00 4.08 1290 10500 (2018) 202 (2001) 1600 233 295 449 465 701 1360 1790 4060 9880
2021-03-30 02:30 4.09 1300 10500 (2018) 202 (2001) 1600 233 295 449 465 701 1360 1790 4060 9880
2021-03-30 02:00 4.11 1320 10500 (2018) 202 (2001) 1600 233 295 449 465 701 1360 1790 4060 9880
2021-03-30 01:30 4.12 1320 10500 (2018) 202 (2001) 1600 233 295 449 465 701 1360 1790 4060 9880
2021-03-30 01:00 4.13 1330 10500 (2018) 202 (2001) 1600 233 295 449 465 701 1360 1790 4060 9880
2021-03-30 00:30 4.15 1350 10500 (2018) 202 (2001) 1600 233 295 449 465 701 1360 1790 4060 9880
2021-03-30 00:00 4.14 1340 10500 (2018) 202 (2001) 1600 233 295 449 465 701 1360 1790 4060 9880
2021-03-29 23:30 4.17 1360 12700 (2018) 195 (2001) 1350 211 321 420 467 624 1050 1240 3020 8490
2021-03-29 23:00 4.18 1370 12700 (2018) 195 (2001) 1350 211 321 420 467 624 1050 1240 3020 8490
2021-03-29 22:30 4.19 1380 12700 (2018) 195 (2001) 1350 211 321 420 467 624 1050 1240 3020 8490
2021-03-29 22:00 4.19 1380 12700 (2018) 195 (2001) 1350 211 321 420 467 624 1050 1240 3020 8490
2021-03-29 21:30 4.21 1390 12700 (2018) 195 (2001) 1350 211 321 420 467 624 1050 1240 3020 8490
2021-03-29 21:00 4.23 1410 12700 (2018) 195 (2001) 1350 211 321 420 467 624 1050 1240 3020 8490
2021-03-29 20:30 4.24 1420 12700 (2018) 195 (2001) 1350 211 321 420 467 624 1050 1240 3020 8490
2021-03-29 20:00 4.25 1430 12700 (2018) 195 (2001) 1350 211 321 420 467 624 1050 1240 3020 8490
2021-03-29 19:30 4.27 1440 12700 (2018) 195 (2001) 1350 211 321 420 467 624 1050 1240 3020 8490
2021-03-29 19:00 4.30 1470 12700 (2018) 195 (2001) 1350 211 321 420 467 624 1050 1240 3020 8490
2021-03-29 18:30 4.31 1480 12700 (2018) 195 (2001) 1350 211 321 420 467 624 1050 1240 3020 8490
2021-03-29 18:00 4.33 1490 12700 (2018) 195 (2001) 1350 211 321 420 467 624 1050 1240 3020 8490
2021-03-29 17:30 4.34 1500 12700 (2018) 195 (2001) 1350 211 321 420 467 624 1050 1240 3020 8490
2021-03-29 17:00 4.35 1510 12700 (2018) 195 (2001) 1350 211 321 420 467 624 1050 1240 3020 8490
2021-03-29 16:30 4.37 1530 12700 (2018) 195 (2001) 1350 211 321 420 467 624 1050 1240 3020 8490
2021-03-29 16:00 4.39 1540 12700 (2018) 195 (2001) 1350 211 321 420 467 624 1050 1240 3020 8490
2021-03-29 15:30 4.40 1550 12700 (2018) 195 (2001) 1350 211 321 420 467 624 1050 1240 3020 8490
2021-03-29 15:00 4.43 1580 12700 (2018) 195 (2001) 1350 211 321 420 467 624 1050 1240 3020 8490
2021-03-29 14:30 4.44 1590 12700 (2018) 195 (2001) 1350 211 321 420 467 624 1050 1240 3020 8490
2021-03-29 14:00 4.46 1610 12700 (2018) 195 (2001) 1350 211 321 420 467 624 1050 1240 3020 8490
2021-03-29 13:30 4.47 1620 12700 (2018) 195 (2001) 1350 211 321 420 467 624 1050 1240 3020 8490
2021-03-29 13:00 4.49 1630 12700 (2018) 195 (2001) 1350 211 321 420 467 624 1050 1240 3020 8490
2021-03-29 12:30 4.52 1660 12700 (2018) 195 (2001) 1350 211 321 420 467 624 1050 1240 3020 8490
2021-03-29 12:00 4.53 1670 12700 (2018) 195 (2001) 1350 211 321 420 467 624 1050 1240 3020 8490
2021-03-29 11:30 4.56 1700 12700 (2018) 195 (2001) 1350 211 321 420 467 624 1050 1240 3020 8490
2021-03-29 11:00 4.56 1700 12700 (2018) 195 (2001) 1350 211 321 420 467 624 1050 1240 3020 8490
2021-03-29 10:30 4.58 1720 12700 (2018) 195 (2001) 1350 211 321 420 467 624 1050 1240 3020 8490
2021-03-29 10:00 4.62 1750 12700 (2018) 195 (2001) 1350 211 321 420 467 624 1050 1240 3020 8490
2021-03-29 09:30 4.63 1760 12700 (2018) 195 (2001) 1350 211 321 420 467 624 1050 1240 3020 8490
2021-03-29 09:00 4.65 1780 12700 (2018) 195 (2001) 1350 211 321 420 467 624 1050 1240 3020 8490
2021-03-29 08:30 4.68 1810 12700 (2018) 195 (2001) 1350 211 321 420 467 624 1050 1240 3020 8490
2021-03-29 08:00 4.70 1830 12700 (2018) 195 (2001) 1350 211 321 420 467 624 1050 1240 3020 8490
2021-03-29 07:30 4.72 1850 12700 (2018) 195 (2001) 1350 211 321 420 467 624 1050 1240 3020 8490
2021-03-29 07:00 4.75 1880 12700 (2018) 195 (2001) 1350 211 321 420 467 624 1050 1240 3020 8490
2021-03-29 06:30 4.77 1890 12700 (2018) 195 (2001) 1350 211 321 420 467 624 1050 1240 3020 8490
2021-03-29 06:00 4.80 1920 12700 (2018) 195 (2001) 1350 211 321 420 467 624 1050 1240 3020 8490
2021-03-29 05:30 4.82 1940 12700 (2018) 195 (2001) 1350 211 321 420 467 624 1050 1240 3020 8490
2021-03-29 05:00 4.85 1960 12700 (2018) 195 (2001) 1350 211 321 420 467 624 1050 1240 3020 8490
2021-03-29 04:30 4.88 1990 12700 (2018) 195 (2001) 1350 211 321 420 467 624 1050 1240 3020 8490
2021-03-29 04:00 4.90 2010 12700 (2018) 195 (2001) 1350 211 321 420 467 624 1050 1240 3020 8490
2021-03-29 03:30 4.93 2040 12700 (2018) 195 (2001) 1350 211 321 420 467 624 1050 1240 3020 8490
2021-03-29 03:00 4.96 2060 12700 (2018) 195 (2001) 1350 211 321 420 467 624 1050 1240 3020 8490
2021-03-29 02:30 4.99 2090 12700 (2018) 195 (2001) 1350 211 321 420 467 624 1050 1240 3020 8490
2021-03-29 02:00 5.02 2110 12700 (2018) 195 (2001) 1350 211 321 420 467 624 1050 1240 3020 8490
2021-03-29 01:30 5.06 2150 12700 (2018) 195 (2001) 1350 211 321 420 467 624 1050 1240 3020 8490
2021-03-29 01:00 5.09 2180 12700 (2018) 195 (2001) 1350 211 321 420 467 624 1050 1240 3020 8490
2021-03-29 00:30 5.12 2200 12700 (2018) 195 (2001) 1350 211 321 420 467 624 1050 1240 3020 8490
2021-03-29 00:00 5.17 2250 12700 (2018) 195 (2001) 1350 211 321 420 467 624 1050 1240 3020 8490
2021-03-28 23:30 5.19 2270 7790 (2018) 196 (2001) 1070 220 346 390 402 680 1440 1590 1880 4060
2021-03-28 23:00 5.23 2300 7790 (2018) 196 (2001) 1070 220 346 390 402 680 1440 1590 1880 4060
2021-03-28 22:30 5.28 2340 7790 (2018) 196 (2001) 1070 220 346 390 402 680 1440 1590 1880 4060
2021-03-28 22:00 5.31 2370 7790 (2018) 196 (2001) 1070 220 346 390 402 680 1440 1590 1880 4060
2021-03-28 21:30 5.35 2410 7790 (2018) 196 (2001) 1070 220 346 390 402 680 1440 1590 1880 4060
2021-03-28 21:00 5.40 2450 7790 (2018) 196 (2001) 1070 220 346 390 402 680 1440 1590 1880 4060
2021-03-28 20:30 5.44 2490 7790 (2018) 196 (2001) 1070 220 346 390 402 680 1440 1590 1880 4060
2021-03-28 19:30 5.53 2580 7790 (2018) 196 (2001) 1070 220 346 390 402 680 1440 1590 1880 4060
2021-03-28 19:00 5.58 2630 7790 (2018) 196 (2001) 1070 220 346 390 402 680 1440 1590 1880 4060
2021-03-28 18:30 5.62 2670 7790 (2018) 196 (2001) 1070 220 346 390 402 680 1440 1590 1880 4060
2021-03-28 18:00 5.69 2740 7790 (2018) 196 (2001) 1070 220 346 390 402 680 1440 1590 1880 4060
2021-03-28 17:30 5.73 2780 7790 (2018) 196 (2001) 1070 220 346 390 402 680 1440 1590 1880 4060
2021-03-28 17:00 5.79 2840 7790 (2018) 196 (2001) 1070 220 346 390 402 680 1440 1590 1880 4060
2021-03-28 16:30 5.85 2900 7790 (2018) 196 (2001) 1070 220 346 390 402 680 1440 1590 1880 4060
2021-03-28 16:00 5.90 2960 7790 (2018) 196 (2001) 1070 220 346 390 402 680 1440 1590 1880 4060
2021-03-28 15:30 5.94 3000 7790 (2018) 196 (2001) 1070 220 346 390 402 680 1440 1590 1880 4060
2021-03-28 15:00 6.01 3070 7790 (2018) 196 (2001) 1070 220 346 390 402 680 1440 1590 1880 4060
2021-03-28 14:30 6.07 3140 7790 (2018) 196 (2001) 1070 220 346 390 402 680 1440 1590 1880 4060
2021-03-28 14:00 6.12 3190 7790 (2018) 196 (2001) 1070 220 346 390 402 680 1440 1590 1880 4060
2021-03-28 13:30 6.18 3250 7790 (2018) 196 (2001) 1070 220 346 390 402 680 1440 1590 1880 4060
2021-03-28 13:00 6.21 3280 7790 (2018) 196 (2001) 1070 220 346 390 402 680 1440 1590 1880 4060
2021-03-28 12:30 6.27 3350 7790 (2018) 196 (2001) 1070 220 346 390 402 680 1440 1590 1880 4060
2021-03-28 12:00 6.31 3390 7790 (2018) 196 (2001) 1070 220 346 390 402 680 1440 1590 1880 4060
2021-03-28 11:30 6.37 3460 7790 (2018) 196 (2001) 1070 220 346 390 402 680 1440 1590 1880 4060
2021-03-28 11:00 6.42 3520 7790 (2018) 196 (2001) 1070 220 346 390 402 680 1440 1590 1880 4060
2021-03-28 10:30 6.45 3550 7790 (2018) 196 (2001) 1070 220 346 390 402 680 1440 1590 1880 4060
2021-03-28 10:00 6.52 3640 7790 (2018) 196 (2001) 1070 220 346 390 402 680 1440 1590 1880 4060
2021-03-28 09:30 6.57 3690 7790 (2018) 196 (2001) 1070 220 346 390 402 680 1440 1590 1880 4060
2021-03-28 09:00 6.60 3730 7790 (2018) 196 (2001) 1070 220 346 390 402 680 1440 1590 1880 4060
2021-03-28 08:30 6.61 3740 7790 (2018) 196 (2001) 1070 220 346 390 402 680 1440 1590 1880 4060
2021-03-28 08:00 6.59 3710 7790 (2018) 196 (2001) 1070 220 346 390 402 680 1440 1590 1880 4060
2021-03-28 07:30 6.55 3670 7790 (2018) 196 (2001) 1070 220 346 390 402 680 1440 1590 1880 4060
2021-03-28 07:00 6.49 3600 7790 (2018) 196 (2001) 1070 220 346 390 402 680 1440 1590 1880 4060
2021-03-28 06:30 6.47 3580 7790 (2018) 196 (2001) 1070 220 346 390 402 680 1440 1590 1880 4060
2021-03-28 06:00 6.50 3610 7790 (2018) 196 (2001) 1070 220 346 390 402 680 1440 1590 1880 4060
2021-03-28 05:30 6.55 3670 7790 (2018) 196 (2001) 1070 220 346 390 402 680 1440 1590 1880 4060
2021-03-28 05:00 6.58 3700 7790 (2018) 196 (2001) 1070 220 346 390 402 680 1440 1590 1880 4060
2021-03-28 04:30 6.58 3700 7790 (2018) 196 (2001) 1070 220 346 390 402 680 1440 1590 1880 4060
2021-03-28 04:00 6.51 3620 7790 (2018) 196 (2001) 1070 220 346 390 402 680 1440 1590 1880 4060
2021-03-28 03:30 6.36 3450 7790 (2018) 196 (2001) 1070 220 346 390 402 680 1440 1590 1880 4060
2021-03-28 03:00 6.14 3210 7790 (2018) 196 (2001) 1070 220 346 390 402 680 1440 1590 1880 4060
2021-03-28 02:30 5.88 2930 7790 (2018) 196 (2001) 1070 220 346 390 402 680 1440 1590 1880 4060
2021-03-28 02:00 5.61 2660 7790 (2018) 196 (2001) 1070 220 346 390 402 680 1440 1590 1880 4060
2021-03-28 01:30 5.41 2460 7790 (2018) 196 (2001) 1070 220 346 390 402 680 1440 1590 1880 4060
2021-03-28 01:00 5.28 2340 7790 (2018) 196 (2001) 1070 220 346 390 402 680 1440 1590 1880 4060
2021-03-28 00:30 5.22 2290 7790 (2018) 196 (2001) 1070 220 346 390 402 680 1440 1590 1880 4060
2021-03-28 00:00 5.08 2170 7790 (2018) 196 (2001) 1070 220 346 390 402 680 1440 1590 1880 4060
2021-03-27 23:30 4.87 1980 3390 (2015) 167 (2007) 985 191 256 403 428 656 1400 1710 2210 2890
2021-03-27 23:00 4.76 1880 3390 (2015) 167 (2007) 985 191 256 403 428 656 1400 1710 2210 2890
2021-03-27 22:30 4.71 1840 3390 (2015) 167 (2007) 985 191 256 403 428 656 1400 1710 2210 2890
2021-03-27 22:00 4.70 1830 3390 (2015) 167 (2007) 985 191 256 403 428 656 1400 1710 2210 2890
2021-03-27 21:30 4.70 1830 3390 (2015) 167 (2007) 985 191 256 403 428 656 1400 1710 2210 2890
2021-03-27 21:00 4.70 1830 3390 (2015) 167 (2007) 985 191 256 403 428 656 1400 1710 2210 2890
2021-03-27 20:30 4.70 1830 3390 (2015) 167 (2007) 985 191 256 403 428 656 1400 1710 2210 2890
2021-03-27 20:00 4.71 1840 3390 (2015) 167 (2007) 985 191 256 403 428 656 1400 1710 2210 2890
2021-03-27 19:30 4.73 1860 3390 (2015) 167 (2007) 985 191 256 403 428 656 1400 1710 2210 2890
2021-03-27 19:00 4.75 1880 3390 (2015) 167 (2007) 985 191 256 403 428 656 1400 1710 2210 2890
2021-03-27 18:30 4.77 1890 3390 (2015) 167 (2007) 985 191 256 403 428 656 1400 1710 2210 2890
2021-03-27 18:00 4.79 1910 3390 (2015) 167 (2007) 985 191 256 403 428 656 1400 1710 2210 2890
2021-03-27 17:30 4.81 1930 3390 (2015) 167 (2007) 985 191 256 403 428 656 1400 1710 2210 2890
2021-03-27 17:00 4.84 1960 3390 (2015) 167 (2007) 985 191 256 403 428 656 1400 1710 2210 2890
2021-03-27 16:30 4.85 1960 3390 (2015) 167 (2007) 985 191 256 403 428 656 1400 1710 2210 2890
2021-03-27 16:00 4.89 2000 3390 (2015) 167 (2007) 985 191 256 403 428 656 1400 1710 2210 2890
2021-03-27 15:30 4.91 2020 3390 (2015) 167 (2007) 985 191 256 403 428 656 1400 1710 2210 2890
2021-03-27 15:00 4.94 2050 3390 (2015) 167 (2007) 985 191 256 403 428 656 1400 1710 2210 2890
2021-03-27 14:30 4.96 2060 3390 (2015) 167 (2007) 985 191 256 403 428 656 1400 1710 2210 2890
2021-03-27 14:00 4.99 2090 3390 (2015) 167 (2007) 985 191 256 403 428 656 1400 1710 2210 2890
2021-03-27 13:30 5.01 2110 3390 (2015) 167 (2007) 985 191 256 403 428 656 1400 1710 2210 2890
2021-03-27 13:00 5.03 2120 3390 (2015) 167 (2007) 985 191 256 403 428 656 1400 1710 2210 2890
2021-03-27 12:30 5.07 2160 3390 (2015) 167 (2007) 985 191 256 403 428 656 1400 1710 2210 2890
2021-03-27 12:00 5.09 2180 3390 (2015) 167 (2007) 985 191 256 403 428 656 1400 1710 2210 2890
2021-03-27 11:30 5.12 2200 3390 (2015) 167 (2007) 985 191 256 403 428 656 1400 1710 2210 2890
2021-03-27 11:00 5.15 2230 3390 (2015) 167 (2007) 985 191 256 403 428 656 1400 1710 2210 2890
2021-03-27 10:30 5.18 2260 3390 (2015) 167 (2007) 985 191 256 403 428 656 1400 1710 2210 2890
2021-03-27 10:00 5.20 2270 3390 (2015) 167 (2007) 985 191 256 403 428 656 1400 1710 2210 2890
2021-03-27 09:30 5.24 2310 3390 (2015) 167 (2007) 985 191 256 403 428 656 1400 1710 2210 2890
2021-03-27 09:00 5.27 2340 3390 (2015) 167 (2007) 985 191 256 403 428 656 1400 1710 2210 2890
2021-03-27 08:30 5.30 2360 3390 (2015) 167 (2007) 985 191 256 403 428 656 1400 1710 2210 2890
2021-03-27 08:00 5.33 2390 3390 (2015) 167 (2007) 985 191 256 403 428 656 1400 1710 2210 2890
2021-03-27 07:30 5.37 2430 3390 (2015) 167 (2007) 985 191 256 403 428 656 1400 1710 2210 2890
2021-03-27 07:00 5.40 2450 3390 (2015) 167 (2007) 985 191 256 403 428 656 1400 1710 2210 2890
2021-03-27 06:30 5.44 2490 3390 (2015) 167 (2007) 985 191 256 403 428 656 1400 1710 2210 2890
2021-03-27 06:00 5.48 2530 3390 (2015) 167 (2007) 985 191 256 403 428 656 1400 1710 2210 2890
2021-03-27 05:30 5.51 2560 3390 (2015) 167 (2007) 985 191 256 403 428 656 1400 1710 2210 2890
2021-03-27 05:00 5.55 2600 3390 (2015) 167 (2007) 985 191 256 403 428 656 1400 1710 2210 2890
2021-03-27 04:30 5.59 2640 3390 (2015) 167 (2007) 985 191 256 403 428 656 1400 1710 2210 2890
2021-03-27 04:00 5.63 2680 3390 (2015) 167 (2007) 985 191 256 403 428 656 1400 1710 2210 2890
2021-03-27 03:30 5.69 2740 3390 (2015) 167 (2007) 985 191 256 403 428 656 1400 1710 2210 2890
2021-03-27 03:00 5.73 2780 3390 (2015) 167 (2007) 985 191 256 403 428 656 1400 1710 2210 2890
2021-03-27 02:30 5.77 2820 3390 (2015) 167 (2007) 985 191 256 403 428 656 1400 1710 2210 2890
2021-03-27 02:00 5.82 2870 3390 (2015) 167 (2007) 985 191 256 403 428 656 1400 1710 2210 2890
2021-03-27 01:30 5.87 2920 3390 (2015) 167 (2007) 985 191 256 403 428 656 1400 1710 2210 2890
2021-03-27 01:00 5.91 2970 3390 (2015) 167 (2007) 985 191 256 403 428 656 1400 1710 2210 2890
2021-03-27 00:30 5.95 3010 3390 (2015) 167 (2007) 985 191 256 403 428 656 1400 1710 2210 2890
2021-03-27 00:00 6.01 3070 3390 (2015) 167 (2007) 985 191 256 403 428 656 1400 1710 2210 2890
2021-03-26 23:30 6.09 3160 6540 (2015) 175 (2007) 1090 203 238 365 376 550 1040 1370 2570 5760
2021-03-26 23:00 6.12 3190 6540 (2015) 175 (2007) 1090 203 238 365 376 550 1040 1370 2570 5760
2021-03-26 22:30 6.18 3250 6540 (2015) 175 (2007) 1090 203 238 365 376 550 1040 1370 2570 5760
2021-03-26 22:00 6.24 3320 6540 (2015) 175 (2007) 1090 203 238 365 376 550 1040 1370 2570 5760
2021-03-26 21:30 6.32 3400 6540 (2015) 175 (2007) 1090 203 238 365 376 550 1040 1370 2570 5760
2021-03-26 21:00 6.38 3470 6540 (2015) 175 (2007) 1090 203 238 365 376 550 1040 1370 2570 5760
2021-03-26 20:30 6.45 3550 6540 (2015) 175 (2007) 1090 203 238 365 376 550 1040 1370 2570 5760
2021-03-26 20:00 6.52 3640 6540 (2015) 175 (2007) 1090 203 238 365 376 550 1040 1370 2570 5760
2021-03-26 19:30 6.60 3730 6540 (2015) 175 (2007) 1090 203 238 365 376 550 1040 1370 2570 5760
2021-03-26 19:00 6.68 3820 6540 (2015) 175 (2007) 1090 203 238 365 376 550 1040 1370 2570 5760
2021-03-26 18:30 6.77 3920 6540 (2015) 175 (2007) 1090 203 238 365 376 550 1040 1370 2570 5760
2021-03-26 18:00 6.86 4030 6540 (2015) 175 (2007) 1090 203 238 365 376 550 1040 1370 2570 5760
2021-03-26 17:30 6.94 4120 6540 (2015) 175 (2007) 1090 203 238 365 376 550 1040 1370 2570 5760
2021-03-26 17:00 7.02 4210 6540 (2015) 175 (2007) 1090 203 238 365 376 550 1040 1370 2570 5760
2021-03-26 16:30 7.13 4340 6540 (2015) 175 (2007) 1090 203 238 365 376 550 1040 1370 2570 5760
2021-03-26 16:00 7.23 4450 6540 (2015) 175 (2007) 1090 203 238 365 376 550 1040 1370 2570 5760
2021-03-26 15:30 7.33 4560 6540 (2015) 175 (2007) 1090 203 238 365 376 550 1040 1370 2570 5760
2021-03-26 15:00 7.43 4670 6540 (2015) 175 (2007) 1090 203 238 365 376 550 1040 1370 2570 5760
2021-03-26 14:30 7.53 4780 6540 (2015) 175 (2007) 1090 203 238 365 376 550 1040 1370 2570 5760
2021-03-26 14:00 7.63 4880 6540 (2015) 175 (2007) 1090 203 238 365 376 550 1040 1370 2570 5760
2021-03-26 13:30 7.72 4980 6540 (2015) 175 (2007) 1090 203 238 365 376 550 1040 1370 2570 5760
2021-03-26 13:00 7.80 5070 6540 (2015) 175 (2007) 1090 203 238 365 376 550 1040 1370 2570 5760
2021-03-26 12:30 7.87 5140 6540 (2015) 175 (2007) 1090 203 238 365 376 550 1040 1370 2570 5760
2021-03-26 12:00 7.96 5240 6540 (2015) 175 (2007) 1090 203 238 365 376 550 1040 1370 2570 5760
2021-03-26 11:30 8.02 5310 6540 (2015) 175 (2007) 1090 203 238 365 376 550 1040 1370 2570 5760
2021-03-26 11:00 8.09 5390 6540 (2015) 175 (2007) 1090 203 238 365 376 550 1040 1370 2570 5760
2021-03-26 10:30 8.15 5450 6540 (2015) 175 (2007) 1090 203 238 365 376 550 1040 1370 2570 5760
2021-03-26 10:00 8.19 5500 6540 (2015) 175 (2007) 1090 203 238 365 376 550 1040 1370 2570 5760
2021-03-26 09:30 8.26 5580 6540 (2015) 175 (2007) 1090 203 238 365 376 550 1040 1370 2570 5760
2021-03-26 09:00 8.30 5630 6540 (2015) 175 (2007) 1090 203 238 365 376 550 1040 1370 2570 5760
2021-03-26 08:30 8.34 5670 6540 (2015) 175 (2007) 1090 203 238 365 376 550 1040 1370 2570 5760
2021-03-26 08:00 8.39 5730 6540 (2015) 175 (2007) 1090 203 238 365 376 550 1040 1370 2570 5760
2021-03-26 07:30 8.43 5780 6540 (2015) 175 (2007) 1090 203 238 365 376 550 1040 1370 2570 5760
2021-03-26 07:00 8.47 5830 6540 (2015) 175 (2007) 1090 203 238 365 376 550 1040 1370 2570 5760
2021-03-26 06:30 8.51 5870 6540 (2015) 175 (2007) 1090 203 238 365 376 550 1040 1370 2570 5760
2021-03-26 06:00 8.52 5890 6540 (2015) 175 (2007) 1090 203 238 365 376 550 1040 1370 2570 5760
2021-03-26 05:30 8.50 5860 6540 (2015) 175 (2007) 1090 203 238 365 376 550 1040 1370 2570 5760
2021-03-26 05:00 8.48 5840 6540 (2015) 175 (2007) 1090 203 238 365 376 550 1040 1370 2570 5760
2021-03-26 04:30 8.41 5760 6540 (2015) 175 (2007) 1090 203 238 365 376 550 1040 1370 2570 5760
2021-03-26 04:00 8.30 5630 6540 (2015) 175 (2007) 1090 203 238 365 376 550 1040 1370 2570 5760
2021-03-26 03:30 8.15 5450 6540 (2015) 175 (2007) 1090 203 238 365 376 550 1040 1370 2570 5760
2021-03-26 03:00 7.91 5190 6540 (2015) 175 (2007) 1090 203 238 365 376 550 1040 1370 2570 5760
2021-03-26 02:30 7.65 4900 6540 (2015) 175 (2007) 1090 203 238 365 376 550 1040 1370 2570 5760
2021-03-26 02:00 7.34 4570 6540 (2015) 175 (2007) 1090 203 238 365 376 550 1040 1370 2570 5760
2021-03-26 01:30 6.97 4150 6540 (2015) 175 (2007) 1090 203 238 365 376 550 1040 1370 2570 5760
2021-03-26 01:00 6.59 3710 6540 (2015) 175 (2007) 1090 203 238 365 376 550 1040 1370 2570 5760
2021-03-26 00:30 6.25 3330 6540 (2015) 175 (2007) 1090 203 238 365 376 550 1040 1370 2570 5760
2021-03-26 00:00 5.97 3030 6540 (2015) 175 (2007) 1090 203 238 365 376 550 1040 1370 2570 5760
2021-03-25 23:30 5.69 2740 4320 (2020) 185 (2007) 815 217 237 308 345 488 920 1130 1800 3400
2021-03-25 23:00 5.43 2480 4320 (2020) 185 (2007) 815 217 237 308 345 488 920 1130 1800 3400
2021-03-25 22:30 5.19 2270 4320 (2020) 185 (2007) 815 217 237 308 345 488 920 1130 1800 3400
2021-03-25 22:00 5.00 2100 4320 (2020) 185 (2007) 815 217 237 308 345 488 920 1130 1800 3400
2021-03-25 21:30 4.86 1970 4320 (2020) 185 (2007) 815 217 237 308 345 488 920 1130 1800 3400
2021-03-25 21:00 4.73 1860 4320 (2020) 185 (2007) 815 217 237 308 345 488 920 1130 1800 3400
2021-03-25 20:30 4.61 1740 4320 (2020) 185 (2007) 815 217 237 308 345 488 920 1130 1800 3400
2021-03-25 20:00 4.51 1650 4320 (2020) 185 (2007) 815 217 237 308 345 488 920 1130 1800 3400
2021-03-25 19:30 4.43 1580 4320 (2020) 185 (2007) 815 217 237 308 345 488 920 1130 1800 3400
2021-03-25 19:00 4.35 1510 4320 (2020) 185 (2007) 815 217 237 308 345 488 920 1130 1800 3400
2021-03-25 18:30 4.25 1430 4320 (2020) 185 (2007) 815 217 237 308 345 488 920 1130 1800 3400
2021-03-25 18:00 4.15 1350 4320 (2020) 185 (2007) 815 217 237 308 345 488 920 1130 1800 3400
2021-03-25 17:30 4.03 1260 4320 (2020) 185 (2007) 815 217 237 308 345 488 920 1130 1800 3400
2021-03-25 17:00 3.89 1160 4320 (2020) 185 (2007) 815 217 237 308 345 488 920 1130 1800 3400
2021-03-25 16:30 3.75 1050 4320 (2020) 185 (2007) 815 217 237 308 345 488 920 1130 1800 3400
2021-03-25 16:00 3.64 970 4320 (2020) 185 (2007) 815 217 237 308 345 488 920 1130 1800 3400
2021-03-25 15:30 3.55 909 4320 (2020) 185 (2007) 815 217 237 308 345 488 920 1130 1800 3400
2021-03-25 15:00 3.48 863 4320 (2020) 185 (2007) 815 217 237 308 345 488 920 1130 1800 3400
2021-03-25 14:30 3.43 832 4320 (2020) 185 (2007) 815 217 237 308 345 488 920 1130 1800 3400
2021-03-25 14:00 3.39 808 4320 (2020) 185 (2007) 815 217 237 308 345 488 920 1130 1800 3400
2021-03-25 13:30 3.36 790 4320 (2020) 185 (2007) 815 217 237 308 345 488 920 1130 1800 3400
2021-03-25 13:00 3.33 772 4320 (2020) 185 (2007) 815 217 237 308 345 488 920 1130 1800 3400
2021-03-25 12:30 3.31 759 4320 (2020) 185 (2007) 815 217 237 308 345 488 920 1130 1800 3400
2021-03-25 12:00 3.28 740 4320 (2020) 185 (2007) 815 217 237 308 345 488 920 1130 1800 3400
2021-03-25 11:30 3.27 733 4320 (2020) 185 (2007) 815 217 237 308 345 488 920 1130 1800 3400
2021-03-25 11:00 3.27 733 4320 (2020) 185 (2007) 815 217 237 308 345 488 920 1130 1800 3400
2021-03-25 10:30 3.26 727 4320 (2020) 185 (2007) 815 217 237 308 345 488 920 1130 1800 3400
2021-03-25 10:00 3.26 727 4320 (2020) 185 (2007) 815 217 237 308 345 488 920 1130 1800 3400
2021-03-25 09:30 3.26 727 4320 (2020) 185 (2007) 815 217 237 308 345 488 920 1130 1800 3400
2021-03-25 09:00 3.26 727 4320 (2020) 185 (2007) 815 217 237 308 345 488 920 1130 1800 3400
2021-03-25 08:30 3.25 721 4320 (2020) 185 (2007) 815 217 237 308 345 488 920 1130 1800 3400
2021-03-25 08:00 3.25 721 4320 (2020) 185 (2007) 815 217 237 308 345 488 920 1130 1800 3400
2021-03-25 07:30 3.25 721 4320 (2020) 185 (2007) 815 217 237 308 345 488 920 1130 1800 3400
2021-03-25 07:00 3.25 721 4320 (2020) 185 (2007) 815 217 237 308 345 488 920 1130 1800 3400
2021-03-25 06:30 3.25 721 4320 (2020) 185 (2007) 815 217 237 308 345 488 920 1130 1800 3400
2021-03-25 06:00 3.26 727 4320 (2020) 185 (2007) 815 217 237 308 345 488 920 1130 1800 3400
2021-03-25 05:30 3.26 727 4320 (2020) 185 (2007) 815 217 237 308 345 488 920 1130 1800 3400
2021-03-25 05:00 3.27 733 4320 (2020) 185 (2007) 815 217 237 308 345 488 920 1130 1800 3400
2021-03-25 04:30 3.27 733 4320 (2020) 185 (2007) 815 217 237 308 345 488 920 1130 1800 3400
2021-03-25 04:00 3.28 740 4320 (2020) 185 (2007) 815 217 237 308 345 488 920 1130 1800 3400
2021-03-25 03:30 3.28 740 4320 (2020) 185 (2007) 815 217 237 308 345 488 920 1130 1800 3400
2021-03-25 03:00 3.29 746 4320 (2020) 185 (2007) 815 217 237 308 345 488 920 1130 1800 3400
2021-03-25 02:30 3.29 746 4320 (2020) 185 (2007) 815 217 237 308 345 488 920 1130 1800 3400
2021-03-25 02:00 3.30 753 4320 (2020) 185 (2007) 815 217 237 308 345 488 920 1130 1800 3400
2021-03-25 01:30 3.30 753 4320 (2020) 185 (2007) 815 217 237 308 345 488 920 1130 1800 3400
2021-03-25 01:00 3.31 759 4320 (2020) 185 (2007) 815 217 237 308 345 488 920 1130 1800 3400
2021-03-25 00:30 3.31 759 4320 (2020) 185 (2007) 815 217 237 308 345 488 920 1130 1800 3400
2021-03-25 00:00 3.32 766 4320 (2020) 185 (2007) 815 217 237 308 345 488 920 1130 1800 3400
2021-03-24 23:30 3.33 772 1840 (2020) 174 (2017) 598 182 204 253 273 452 708 805 1650 1790
2021-03-24 23:00 3.33 772 1840 (2020) 174 (2017) 598 182 204 253 273 452 708 805 1650 1790
2021-03-24 22:30 3.34 778 1840 (2020) 174 (2017) 598 182 204 253 273 452 708 805 1650 1790
2021-03-24 22:00 3.35 784 1840 (2020) 174 (2017) 598 182 204 253 273 452 708 805 1650 1790
2021-03-24 21:30 3.36 790 1840 (2020) 174 (2017) 598 182 204 253 273 452 708 805 1650 1790
2021-03-24 21:00 3.36 790 1840 (2020) 174 (2017) 598 182 204 253 273 452 708 805 1650 1790
2021-03-24 20:30 3.37 796 1840 (2020) 174 (2017) 598 182 204 253 273 452 708 805 1650 1790
2021-03-24 20:00 3.37 796 1840 (2020) 174 (2017) 598 182 204 253 273 452 708 805 1650 1790
2021-03-24 19:30 3.37 796 1840 (2020) 174 (2017) 598 182 204 253 273 452 708 805 1650 1790
2021-03-24 19:00 3.38 802 1840 (2020) 174 (2017) 598 182 204 253 273 452 708 805 1650 1790
2021-03-24 18:30 3.39 808 1840 (2020) 174 (2017) 598 182 204 253 273 452 708 805 1650 1790
2021-03-24 18:00 3.40 814 1840 (2020) 174 (2017) 598 182 204 253 273 452 708 805 1650 1790
2021-03-24 17:30 3.40 814 1840 (2020) 174 (2017) 598 182 204 253 273 452 708 805 1650 1790
2021-03-24 17:00 3.41 820 1840 (2020) 174 (2017) 598 182 204 253 273 452 708 805 1650 1790
2021-03-24 16:30 3.41 820 1840 (2020) 174 (2017) 598 182 204 253 273 452 708 805 1650 1790
2021-03-24 16:00 3.42 826 1840 (2020) 174 (2017) 598 182 204 253 273 452 708 805 1650 1790
2021-03-24 15:30 3.42 826 1840 (2020) 174 (2017) 598 182 204 253 273 452 708 805 1650 1790
2021-03-24 15:00 3.43 832 1840 (2020) 174 (2017) 598 182 204 253 273 452 708 805 1650 1790
2021-03-24 14:30 3.43 832 1840 (2020) 174 (2017) 598 182 204 253 273 452 708 805 1650 1790
2021-03-24 14:00 3.43 832 1840 (2020) 174 (2017) 598 182 204 253 273 452 708 805 1650 1790
2021-03-24 13:30 3.44 838 1840 (2020) 174 (2017) 598 182 204 253 273 452 708 805 1650 1790
2021-03-24 13:00 3.44 838 1840 (2020) 174 (2017) 598 182 204 253 273 452 708 805 1650 1790
2021-03-24 12:30 3.45 845 1840 (2020) 174 (2017) 598 182 204 253 273 452 708 805 1650 1790
2021-03-24 12:00 3.45 845 1840 (2020) 174 (2017) 598 182 204 253 273 452 708 805 1650 1790
2021-03-24 11:30 3.45 845 1840 (2020) 174 (2017) 598 182 204 253 273 452 708 805 1650 1790
2021-03-24 11:00 3.45 845 1840 (2020) 174 (2017) 598 182 204 253 273 452 708 805 1650 1790
2021-03-24 10:30 3.45 845 1840 (2020) 174 (2017) 598 182 204 253 273 452 708 805 1650 1790
2021-03-24 10:00 3.45 845 1840 (2020) 174 (2017) 598 182 204 253 273 452 708 805 1650 1790
2021-03-24 09:30 3.46 851 1840 (2020) 174 (2017) 598 182 204 253 273 452 708 805 1650 1790
2021-03-24 09:00 3.46 851 1840 (2020) 174 (2017) 598 182 204 253 273 452 708 805 1650 1790
2021-03-24 08:30 3.47 857 1840 (2020) 174 (2017) 598 182 204 253 273 452 708 805 1650 1790
2021-03-24 08:00 3.47 857 1840 (2020) 174 (2017) 598 182 204 253 273 452 708 805 1650 1790
2021-03-24 07:30 3.47 857 1840 (2020) 174 (2017) 598 182 204 253 273 452 708 805 1650 1790
2021-03-24 07:00 3.48 863 1840 (2020) 174 (2017) 598 182 204 253 273 452 708 805 1650 1790
2021-03-24 06:30 3.48 863 1840 (2020) 174 (2017) 598 182 204 253 273 452 708 805 1650 1790
2021-03-24 06:00 3.49 870 1840 (2020) 174 (2017) 598 182 204 253 273 452 708 805 1650 1790
2021-03-24 05:30 3.49 870 1840 (2020) 174 (2017) 598 182 204 253 273 452 708 805 1650 1790
2021-03-24 05:00 3.49 870 1840 (2020) 174 (2017) 598 182 204 253 273 452 708 805 1650 1790
2021-03-24 04:30 3.49 870 1840 (2020) 174 (2017) 598 182 204 253 273 452 708 805 1650 1790
2021-03-24 04:00 3.50 876 1840 (2020) 174 (2017) 598 182 204 253 273 452 708 805 1650 1790
2021-03-24 03:30 3.50 876 1840 (2020) 174 (2017) 598 182 204 253 273 452 708 805 1650 1790
2021-03-24 03:00 3.50 876 1840 (2020) 174 (2017) 598 182 204 253 273 452 708 805 1650 1790
2021-03-24 02:30 3.50 876 1840 (2020) 174 (2017) 598 182 204 253 273 452 708 805 1650 1790
2021-03-24 02:00 3.51 883 1840 (2020) 174 (2017) 598 182 204 253 273 452 708 805 1650 1790
2021-03-24 01:30 3.51 883 1840 (2020) 174 (2017) 598 182 204 253 273 452 708 805 1650 1790
2021-03-24 01:00 3.51 883 1840 (2020) 174 (2017) 598 182 204 253 273 452 708 805 1650 1790
2021-03-24 00:30 3.51 883 1840 (2020) 174 (2017) 598 182 204 253 273 452 708 805 1650 1790
2021-03-24 00:00 3.52 889 1840 (2020) 174 (2017) 598 182 204 253 273 452 708 805 1650 1790
2021-03-23 23:30 3.52 889 4670 (1991) 169 (2007) 768 172 196 263 278 484 815 922 1900 3360
2021-03-23 23:00 3.52 889 4670 (1991) 169 (2007) 768 172 196 263 278 484 815 922 1900 3360
2021-03-23 22:30 3.52 889 4670 (1991) 169 (2007) 768 172 196 263 278 484 815 922 1900 3360
2021-03-23 22:00 3.52 889 4670 (1991) 169 (2007) 768 172 196 263 278 484 815 922 1900 3360
2021-03-23 21:30 3.52 889 4670 (1991) 169 (2007) 768 172 196 263 278 484 815 922 1900 3360
2021-03-23 21:00 3.52 889 4670 (1991) 169 (2007) 768 172 196 263 278 484 815 922 1900 3360
2021-03-23 20:30 3.52 889 4670 (1991) 169 (2007) 768 172 196 263 278 484 815 922 1900 3360
2021-03-23 20:00 3.52 889 4670 (1991) 169 (2007) 768 172 196 263 278 484 815 922 1900 3360
2021-03-23 19:30 3.52 889 4670 (1991) 169 (2007) 768 172 196 263 278 484 815 922 1900 3360
2021-03-23 19:00 3.53 896 4670 (1991) 169 (2007) 768 172 196 263 278 484 815 922 1900 3360
2021-03-23 18:30 3.52 889 4670 (1991) 169 (2007) 768 172 196 263 278 484 815 922 1900 3360
2021-03-23 18:00 3.52 889 4670 (1991) 169 (2007) 768 172 196 263 278 484 815 922 1900 3360
2021-03-23 17:30 3.51 883 4670 (1991) 169 (2007) 768 172 196 263 278 484 815 922 1900 3360
2021-03-23 17:00 3.51 883 4670 (1991) 169 (2007) 768 172 196 263 278 484 815 922 1900 3360
2021-03-23 16:30 3.52 889 4670 (1991) 169 (2007) 768 172 196 263 278 484 815 922 1900 3360
2021-03-23 16:00 3.52 889 4670 (1991) 169 (2007) 768 172 196 263 278 484 815 922 1900 3360
2021-03-23 15:30 3.52 889 4670 (1991) 169 (2007) 768 172 196 263 278 484 815 922 1900 3360
2021-03-23 15:00 3.52 889 4670 (1991) 169 (2007) 768 172 196 263 278 484 815 922 1900 3360
2021-03-23 14:30 3.51 883 4670 (1991) 169 (2007) 768 172 196 263 278 484 815 922 1900 3360
2021-03-23 14:00 3.53 896 4670 (1991) 169 (2007) 768 172 196 263 278 484 815 922 1900 3360
2021-03-23 13:30 3.52 889 4670 (1991) 169 (2007) 768 172 196 263 278 484 815 922 1900 3360
2021-03-23 13:00 3.51 883 4670 (1991) 169 (2007) 768 172 196 263 278 484 815 922 1900 3360
2021-03-23 12:30 3.52 889 4670 (1991) 169 (2007) 768 172 196 263 278 484 815 922 1900 3360
2021-03-23 12:00 3.52 889 4670 (1991) 169 (2007) 768 172 196 263 278 484 815 922 1900 3360
2021-03-23 11:30 3.52 889 4670 (1991) 169 (2007) 768 172 196 263 278 484 815 922 1900 3360
2021-03-23 11:00 3.52 889 4670 (1991) 169 (2007) 768 172 196 263 278 484 815 922 1900 3360
2021-03-23 10:30 3.52 889 4670 (1991) 169 (2007) 768 172 196 263 278 484 815 922 1900 3360
2021-03-23 10:00 3.52 889 4670 (1991) 169 (2007) 768 172 196 263 278 484 815 922 1900 3360
2021-03-23 09:30 3.52 889 4670 (1991) 169 (2007) 768 172 196 263 278 484 815 922 1900 3360
2021-03-23 09:00 3.53 896 4670 (1991) 169 (2007) 768 172 196 263 278 484 815 922 1900 3360
2021-03-23 08:30 3.53 896 4670 (1991) 169 (2007) 768 172 196 263 278 484 815 922 1900 3360
2021-03-23 08:00 3.53 896 4670 (1991) 169 (2007) 768 172 196 263 278 484 815 922 1900 3360
2021-03-23 07:30 3.53 896 4670 (1991) 169 (2007) 768 172 196 263 278 484 815 922 1900 3360
2021-03-23 07:00 3.53 896 4670 (1991) 169 (2007) 768 172 196 263 278 484 815 922 1900 3360
2021-03-23 06:30 3.53 896 4670 (1991) 169 (2007) 768 172 196 263 278 484 815 922 1900 3360
2021-03-23 06:00 3.54 902 4670 (1991) 169 (2007) 768 172 196 263 278 484 815 922 1900 3360
2021-03-23 05:30 3.54 902 4670 (1991) 169 (2007) 768 172 196 263 278 484 815 922 1900 3360
2021-03-23 05:00 3.55 909 4670 (1991) 169 (2007) 768 172 196 263 278 484 815 922 1900 3360
2021-03-23 04:30 3.56 916 4670 (1991) 169 (2007) 768 172 196 263 278 484 815 922 1900 3360
2021-03-23 04:00 3.55 909 4670 (1991) 169 (2007) 768 172 196 263 278 484 815 922 1900 3360
2021-03-23 03:30 3.56 916 4670 (1991) 169 (2007) 768 172 196 263 278 484 815 922 1900 3360
2021-03-23 03:00 3.56 916 4670 (1991) 169 (2007) 768 172 196 263 278 484 815 922 1900 3360
2021-03-23 02:30 3.57 922 4670 (1991) 169 (2007) 768 172 196 263 278 484 815 922 1900 3360
2021-03-23 02:00 3.57 922 4670 (1991) 169 (2007) 768 172 196 263 278 484 815 922 1900 3360
2021-03-23 01:30 3.58 929 4670 (1991) 169 (2007) 768 172 196 263 278 484 815 922 1900 3360
2021-03-23 01:00 3.58 929 4670 (1991) 169 (2007) 768 172 196 263 278 484 815 922 1900 3360
2021-03-23 00:30 3.59 936 4670 (1991) 169 (2007) 768 172 196 263 278 484 815 922 1900 3360
2021-03-23 00:00 3.60 943 4670 (1991) 169 (2007) 768 172 196 263 278 484 815 922 1900 3360
2021-03-22 23:30 3.61 949 4770 (2010) 167 (2007) 867 174 207 259 277 492 948 1110 1770 4450
2021-03-22 23:00 3.61 949 4770 (2010) 167 (2007) 867 174 207 259 277 492 948 1110 1770 4450
2021-03-22 22:30 3.62 956 4770 (2010) 167 (2007) 867 174 207 259 277 492 948 1110 1770 4450
2021-03-22 22:00 3.63 963 4770 (2010) 167 (2007) 867 174 207 259 277 492 948 1110 1770 4450
2021-03-22 21:30 3.63 963 4770 (2010) 167 (2007) 867 174 207 259 277 492 948 1110 1770 4450
2021-03-22 21:00 3.64 970 4770 (2010) 167 (2007) 867 174 207 259 277 492 948 1110 1770 4450
2021-03-22 20:30 3.65 977 4770 (2010) 167 (2007) 867 174 207 259 277 492 948 1110 1770 4450
2021-03-22 20:00 3.66 984 4770 (2010) 167 (2007) 867 174 207 259 277 492 948 1110 1770 4450
2021-03-22 19:30 3.67 991 4770 (2010) 167 (2007) 867 174 207 259 277 492 948 1110 1770 4450
2021-03-22 19:00 3.68 999 4770 (2010) 167 (2007) 867 174 207 259 277 492 948 1110 1770 4450
2021-03-22 18:30 3.69 1010 4770 (2010) 167 (2007) 867 174 207 259 277 492 948 1110 1770 4450
2021-03-22 18:00 3.70 1010 4770 (2010) 167 (2007) 867 174 207 259 277 492 948 1110 1770 4450
2021-03-22 17:30 3.71 1020 4770 (2010) 167 (2007) 867 174 207 259 277 492 948 1110 1770 4450
2021-03-22 17:00 3.72 1030 4770 (2010) 167 (2007) 867 174 207 259 277 492 948 1110 1770 4450
2021-03-22 16:30 3.73 1030 4770 (2010) 167 (2007) 867 174 207 259 277 492 948 1110 1770 4450
2021-03-22 16:00 3.73 1030 4770 (2010) 167 (2007) 867 174 207 259 277 492 948 1110 1770 4450
2021-03-22 15:30 3.75 1050 4770 (2010) 167 (2007) 867 174 207 259 277 492 948 1110 1770 4450
2021-03-22 15:00 3.76 1060 4770 (2010) 167 (2007) 867 174 207 259 277 492 948 1110 1770 4450
2021-03-22 14:30 3.76 1060 4770 (2010) 167 (2007) 867 174 207 259 277 492 948 1110 1770 4450
2021-03-22 14:00 3.76 1060 4770 (2010) 167 (2007) 867 174 207 259 277 492 948 1110 1770 4450
2021-03-22 13:30 3.77 1060 4770 (2010) 167 (2007) 867 174 207 259 277 492 948 1110 1770 4450
2021-03-22 13:00 3.78 1070 4770 (2010) 167 (2007) 867 174 207 259 277 492 948 1110 1770 4450
2021-03-22 12:30 3.79 1080 4770 (2010) 167 (2007) 867 174 207 259 277 492 948 1110 1770 4450
2021-03-22 12:00 3.79 1080 4770 (2010) 167 (2007) 867 174 207 259 277 492 948 1110 1770 4450
2021-03-22 11:30 3.80 1090 4770 (2010) 167 (2007) 867 174 207 259 277 492 948 1110 1770 4450
2021-03-22 11:00 3.81 1100 4770 (2010) 167 (2007) 867 174 207 259 277 492 948 1110 1770 4450
2021-03-22 10:30 3.81 1100 4770 (2010) 167 (2007) 867 174 207 259 277 492 948 1110 1770 4450
2021-03-22 10:00 3.82 1100 4770 (2010) 167 (2007) 867 174 207 259 277 492 948 1110 1770 4450
2021-03-22 09:30 3.83 1110 4770 (2010) 167 (2007) 867 174 207 259 277 492 948 1110 1770 4450
2021-03-22 09:00 3.84 1120 4770 (2010) 167 (2007) 867 174 207 259 277 492 948 1110 1770 4450
2021-03-22 08:30 3.85 1130 4770 (2010) 167 (2007) 867 174 207 259 277 492 948 1110 1770 4450
2021-03-22 08:00 3.85 1130 4770 (2010) 167 (2007) 867 174 207 259 277 492 948 1110 1770 4450
2021-03-22 07:30 3.86 1130 4770 (2010) 167 (2007) 867 174 207 259 277 492 948 1110 1770 4450
2021-03-22 07:00 3.87 1140 4770 (2010) 167 (2007) 867 174 207 259 277 492 948 1110 1770 4450
2021-03-22 06:30 3.88 1150 4770 (2010) 167 (2007) 867 174 207 259 277 492 948 1110 1770 4450
2021-03-22 06:00 3.88 1150 4770 (2010) 167 (2007) 867 174 207 259 277 492 948 1110 1770 4450
2021-03-22 05:30 3.89 1160 4770 (2010) 167 (2007) 867 174 207 259 277 492 948 1110 1770 4450
2021-03-22 05:00 3.90 1160 4770 (2010) 167 (2007) 867 174 207 259 277 492 948 1110 1770 4450
2021-03-22 04:30 3.91 1170 4770 (2010) 167 (2007) 867 174 207 259 277 492 948 1110 1770 4450
2021-03-22 04:00 3.92 1180 4770 (2010) 167 (2007) 867 174 207 259 277 492 948 1110 1770 4450
2021-03-22 03:30 3.93 1180 4770 (2010) 167 (2007) 867 174 207 259 277 492 948 1110 1770 4450
2021-03-22 03:00 3.93 1180 4770 (2010) 167 (2007) 867 174 207 259 277 492 948 1110 1770 4450
2021-03-22 02:30 3.95 1200 4770 (2010) 167 (2007) 867 174 207 259 277 492 948 1110 1770 4450
2021-03-22 02:00 3.95 1200 4770 (2010) 167 (2007) 867 174 207 259 277 492 948 1110 1770 4450
2021-03-22 01:30 3.97 1210 4770 (2010) 167 (2007) 867 174 207 259 277 492 948 1110 1770 4450
2021-03-22 01:00 3.97 1210 4770 (2010) 167 (2007) 867 174 207 259 277 492 948 1110 1770 4450
2021-03-22 00:30 3.99 1230 4770 (2010) 167 (2007) 867 174 207 259 277 492 948 1110 1770 4450
2021-03-22 00:00 4.00 1230 4770 (2010) 167 (2007) 867 174 207 259 277 492 948 1110 1770 4450
2021-03-21 23:30 4.01 1240 3110 (2020) 122 (2005) 835 156 193 275 303 585 939 1290 2290 3010
2021-03-21 23:00 4.01 1240 3110 (2020) 122 (2005) 835 156 193 275 303 585 939 1290 2290 3010
2021-03-21 22:30 4.02 1250 3110 (2020) 122 (2005) 835 156 193 275 303 585 939 1290 2290 3010
2021-03-21 22:00 4.03 1260 3110 (2020) 122 (2005) 835 156 193 275 303 585 939 1290 2290 3010
2021-03-21 21:30 4.04 1260 3110 (2020) 122 (2005) 835 156 193 275 303 585 939 1290 2290 3010
2021-03-21 21:00 4.05 1270 3110 (2020) 122 (2005) 835 156 193 275 303 585 939 1290 2290 3010
2021-03-21 20:30 4.06 1280 3110 (2020) 122 (2005) 835 156 193 275 303 585 939 1290 2290 3010
2021-03-21 20:00 4.07 1290 3110 (2020) 122 (2005) 835 156 193 275 303 585 939 1290 2290 3010
2021-03-21 19:30 4.09 1300 3110 (2020) 122 (2005) 835 156 193 275 303 585 939 1290 2290 3010
2021-03-21 19:00 4.10 1310 3110 (2020) 122 (2005) 835 156 193 275 303 585 939 1290 2290 3010
2021-03-21 18:30 4.11 1320 3110 (2020) 122 (2005) 835 156 193 275 303 585 939 1290 2290 3010
2021-03-21 18:00 4.12 1320 3110 (2020) 122 (2005) 835 156 193 275 303 585 939 1290 2290 3010
2021-03-21 17:30 4.14 1340 3110 (2020) 122 (2005) 835 156 193 275 303 585 939 1290 2290 3010
2021-03-21 17:00 4.15 1350 3110 (2020) 122 (2005) 835 156 193 275 303 585 939 1290 2290 3010
2021-03-21 16:30 4.16 1360 3110 (2020) 122 (2005) 835 156 193 275 303 585 939 1290 2290 3010
2021-03-21 16:00 4.16 1360 3110 (2020) 122 (2005) 835 156 193 275 303 585 939 1290 2290 3010
2021-03-21 15:30 4.18 1370 3110 (2020) 122 (2005) 835 156 193 275 303 585 939 1290 2290 3010
2021-03-21 15:00 4.20 1390 3110 (2020) 122 (2005) 835 156 193 275 303 585 939 1290 2290 3010
2021-03-21 14:30 4.22 1400 3110 (2020) 122 (2005) 835 156 193 275 303 585 939 1290 2290 3010
2021-03-21 14:00 4.21 1390 3110 (2020) 122 (2005) 835 156 193 275 303 585 939 1290 2290 3010
2021-03-21 13:30 4.23 1410 3110 (2020) 122 (2005) 835 156 193 275 303 585 939 1290 2290 3010
2021-03-21 13:00 4.24 1420 3110 (2020) 122 (2005) 835 156 193 275 303 585 939 1290 2290 3010
2021-03-21 12:30 4.25 1430 3110 (2020) 122 (2005) 835 156 193 275 303 585 939 1290 2290 3010
2021-03-21 12:00 4.27 1440 3110 (2020) 122 (2005) 835 156 193 275 303 585 939 1290 2290 3010
2021-03-21 11:30 4.28 1450 3110 (2020) 122 (2005) 835 156 193 275 303 585 939 1290 2290 3010
2021-03-21 11:00 4.30 1470 3110 (2020) 122 (2005) 835 156 193 275 303 585 939 1290 2290 3010
2021-03-21 10:30 4.30 1470 3110 (2020) 122 (2005) 835 156 193 275 303 585 939 1290 2290 3010
2021-03-21 10:00 4.31 1480 3110 (2020) 122 (2005) 835 156 193 275 303 585 939 1290 2290 3010
2021-03-21 09:30 4.33 1490 3110 (2020) 122 (2005) 835 156 193 275 303 585 939 1290 2290 3010
2021-03-21 09:00 4.34 1500 3110 (2020) 122 (2005) 835 156 193 275 303 585 939 1290 2290 3010
2021-03-21 08:30 4.35 1510 3110 (2020) 122 (2005) 835 156 193 275 303 585 939 1290 2290 3010
2021-03-21 08:00 4.37 1530 3110 (2020) 122 (2005) 835 156 193 275 303 585 939 1290 2290 3010
2021-03-21 07:30 4.38 1540 3110 (2020) 122 (2005) 835 156 193 275 303 585 939 1290 2290 3010
2021-03-21 07:00 4.40 1550 3110 (2020) 122 (2005) 835 156 193 275 303 585 939 1290 2290 3010
2021-03-21 06:30 4.41 1560 3110 (2020) 122 (2005) 835 156 193 275 303 585 939 1290 2290 3010
2021-03-21 06:00 4.42 1570 3110 (2020) 122 (2005) 835 156 193 275 303 585 939 1290 2290 3010
2021-03-21 05:30 4.44 1590 3110 (2020) 122 (2005) 835 156 193 275 303 585 939 1290 2290 3010
2021-03-21 05:00 4.45 1600 3110 (2020) 122 (2005) 835 156 193 275 303 585 939 1290 2290 3010
2021-03-21 04:30 4.47 1620 3110 (2020) 122 (2005) 835 156 193 275 303 585 939 1290 2290 3010
2021-03-21 04:00 4.48 1620 3110 (2020) 122 (2005) 835 156 193 275 303 585 939 1290 2290 3010
2021-03-21 03:30 4.50 1640 3110 (2020) 122 (2005) 835 156 193 275 303 585 939 1290 2290 3010
2021-03-21 03:00 4.51 1650 3110 (2020) 122 (2005) 835 156 193 275 303 585 939 1290 2290 3010
2021-03-21 02:30 4.53 1670 3110 (2020) 122 (2005) 835 156 193 275 303 585 939 1290 2290 3010
2021-03-21 02:00 4.54 1680 3110 (2020) 122 (2005) 835 156 193 275 303 585 939 1290 2290 3010
2021-03-21 01:30 4.56 1700 3110 (2020) 122 (2005) 835 156 193 275 303 585 939 1290 2290 3010
2021-03-21 01:00 4.57 1710 3110 (2020) 122 (2005) 835 156 193 275 303 585 939 1290 2290 3010
2021-03-21 00:30 4.58 1720 3110 (2020) 122 (2005) 835 156 193 275 303 585 939 1290 2290 3010
2021-03-21 00:00 4.59 1730 3110 (2020) 122 (2005) 835 156 193 275 303 585 939 1290 2290 3010
2021-03-20 23:30 4.62 1750 12200 (2020) 126 (2005) 1470 157 195 290 317 585 1170 1360 6120 9620
2021-03-20 23:00 4.63 1760 12200 (2020) 126 (2005) 1470 157 195 290 317 585 1170 1360 6120 9620
2021-03-20 22:30 4.64 1770 12200 (2020) 126 (2005) 1470 157 195 290 317 585 1170 1360 6120 9620
2021-03-20 22:00 4.66 1790 12200 (2020) 126 (2005) 1470 157 195 290 317 585 1170 1360 6120 9620
2021-03-20 21:30 4.67 1800 12200 (2020) 126 (2005) 1470 157 195 290 317 585 1170 1360 6120 9620
2021-03-20 21:00 4.69 1820 12200 (2020) 126 (2005) 1470 157 195 290 317 585 1170 1360 6120 9620
2021-03-20 20:30 4.70 1830 12200 (2020) 126 (2005) 1470 157 195 290 317 585 1170 1360 6120 9620
2021-03-20 20:00 4.72 1850 12200 (2020) 126 (2005) 1470 157 195 290 317 585 1170 1360 6120 9620
2021-03-20 19:30 4.75 1880 12200 (2020) 126 (2005) 1470 157 195 290 317 585 1170 1360 6120 9620
2021-03-20 19:00 4.76 1880 12200 (2020) 126 (2005) 1470 157 195 290 317 585 1170 1360 6120 9620
2021-03-20 18:30 4.78 1900 12200 (2020) 126 (2005) 1470 157 195 290 317 585 1170 1360 6120 9620
2021-03-20 18:00 4.80 1920 12200 (2020) 126 (2005) 1470 157 195 290 317 585 1170 1360 6120 9620
2021-03-20 17:30 4.82 1940 12200 (2020) 126 (2005) 1470 157 195 290 317 585 1170 1360 6120 9620
2021-03-20 17:00 4.84 1960 12200 (2020) 126 (2005) 1470 157 195 290 317 585 1170 1360 6120 9620
2021-03-20 16:30 4.85 1960 12200 (2020) 126 (2005) 1470 157 195 290 317 585 1170 1360 6120 9620
2021-03-20 16:00 4.87 1980 12200 (2020) 126 (2005) 1470 157 195 290 317 585 1170 1360 6120 9620
2021-03-20 15:30 4.89 2000 12200 (2020) 126 (2005) 1470 157 195 290 317 585 1170 1360 6120 9620
2021-03-20 15:00 4.91 2020 12200 (2020) 126 (2005) 1470 157 195 290 317 585 1170 1360 6120 9620
2021-03-20 14:30 4.93 2040 12200 (2020) 126 (2005) 1470 157 195 290 317 585 1170 1360 6120 9620
2021-03-20 14:00 4.95 2050 12200 (2020) 126 (2005) 1470 157 195 290 317 585 1170 1360 6120 9620
2021-03-20 13:30 4.97 2070 12200 (2020) 126 (2005) 1470 157 195 290 317 585 1170 1360 6120 9620
2021-03-20 13:00 4.99 2090 12200 (2020) 126 (2005) 1470 157 195 290 317 585 1170 1360 6120 9620
2021-03-20 12:30 5.02 2110 12200 (2020) 126 (2005) 1470 157 195 290 317 585 1170 1360 6120 9620
2021-03-20 12:00 5.04 2130 12200 (2020) 126 (2005) 1470 157 195 290 317 585 1170 1360 6120 9620
2021-03-20 11:30 5.07 2160 12200 (2020) 126 (2005) 1470 157 195 290 317 585 1170 1360 6120 9620
2021-03-20 11:00 5.09 2180 12200 (2020) 126 (2005) 1470 157 195 290 317 585 1170 1360 6120 9620
2021-03-20 10:30 5.11 2190 12200 (2020) 126 (2005) 1470 157 195 290 317 585 1170 1360 6120 9620
2021-03-20 10:00 5.14 2220 12200 (2020) 126 (2005) 1470 157 195 290 317 585 1170 1360 6120 9620
2021-03-20 09:30 5.16 2240 12200 (2020) 126 (2005) 1470 157 195 290 317 585 1170 1360 6120 9620
2021-03-20 09:00 5.19 2270 12200 (2020) 126 (2005) 1470 157 195 290 317 585 1170 1360 6120 9620
2021-03-20 08:30 5.22 2290 12200 (2020) 126 (2005) 1470 157 195 290 317 585 1170 1360 6120 9620
2021-03-20 08:00 5.24 2310 12200 (2020) 126 (2005) 1470 157 195 290 317 585 1170 1360 6120 9620
2021-03-20 07:30 5.28 2340 12200 (2020) 126 (2005) 1470 157 195 290 317 585 1170 1360 6120 9620
2021-03-20 07:00 5.30 2360 12200 (2020) 126 (2005) 1470 157 195 290 317 585 1170 1360 6120 9620
2021-03-20 06:30 5.32 2380 12200 (2020) 126 (2005) 1470 157 195 290 317 585 1170 1360 6120 9620
2021-03-20 06:00 5.36 2420 12200 (2020) 126 (2005) 1470 157 195 290 317 585 1170 1360 6120 9620
2021-03-20 05:30 5.38 2430 12200 (2020) 126 (2005) 1470 157 195 290 317 585 1170 1360 6120 9620
2021-03-20 05:00 5.41 2460 12200 (2020) 126 (2005) 1470 157 195 290 317 585 1170 1360 6120 9620
2021-03-20 04:30 5.44 2490 12200 (2020) 126 (2005) 1470 157 195 290 317 585 1170 1360 6120 9620
2021-03-20 04:00 5.48 2530 12200 (2020) 126 (2005) 1470 157 195 290 317 585 1170 1360 6120 9620
2021-03-20 03:30 5.51 2560 12200 (2020) 126 (2005) 1470 157 195 290 317 585 1170 1360 6120 9620
2021-03-20 03:00 5.53 2580 12200 (2020) 126 (2005) 1470 157 195 290 317 585 1170 1360 6120 9620
2021-03-20 02:30 5.56 2610 12200 (2020) 126 (2005) 1470 157 195 290 317 585 1170 1360 6120 9620
2021-03-20 02:00 5.60 2650 12200 (2020) 126 (2005) 1470 157 195 290 317 585 1170 1360 6120 9620
2021-03-20 01:30 5.64 2690 12200 (2020) 126 (2005) 1470 157 195 290 317 585 1170 1360 6120 9620
2021-03-20 01:00 5.67 2720 12200 (2020) 126 (2005) 1470 157 195 290 317 585 1170 1360 6120 9620
2021-03-20 00:30 5.71 2760 12200 (2020) 126 (2005) 1470 157 195 290 317 585 1170 1360 6120 9620
2021-03-20 00:00 5.74 2790 12200 (2020) 126 (2005) 1470 157 195 290 317 585 1170 1360 6120 9620
2021-03-19 23:30 5.79 2840 40000 (2008) 130 (2005) 2340 151 194 273 307 459 1390 2300 3900 18900
2021-03-19 23:00 5.83 2880 40000 (2008) 130 (2005) 2340 151 194 273 307 459 1390 2300 3900 18900
2021-03-19 22:30 5.86 2910 40000 (2008) 130 (2005) 2340 151 194 273 307 459 1390 2300 3900 18900
2021-03-19 22:00 5.91 2970 40000 (2008) 130 (2005) 2340 151 194 273 307 459 1390 2300 3900 18900
2021-03-19 21:30 5.94 3000 40000 (2008) 130 (2005) 2340 151 194 273 307 459 1390 2300 3900 18900
2021-03-19 21:00 5.98 3040 40000 (2008) 130 (2005) 2340 151 194 273 307 459 1390 2300 3900 18900
2021-03-19 20:30 6.03 3090 40000 (2008) 130 (2005) 2340 151 194 273 307 459 1390 2300 3900 18900
2021-03-19 20:00 6.06 3130 40000 (2008) 130 (2005) 2340 151 194 273 307 459 1390 2300 3900 18900
2021-03-19 19:30 6.11 3180 40000 (2008) 130 (2005) 2340 151 194 273 307 459 1390 2300 3900 18900
2021-03-19 19:00 6.16 3230 40000 (2008) 130 (2005) 2340 151 194 273 307 459 1390 2300 3900 18900
2021-03-19 18:30 6.21 3280 40000 (2008) 130 (2005) 2340 151 194 273 307 459 1390 2300 3900 18900
2021-03-19 18:00 6.24 3320 40000 (2008) 130 (2005) 2340 151 194 273 307 459 1390 2300 3900 18900
2021-03-19 17:30 6.30 3380 40000 (2008) 130 (2005) 2340 151 194 273 307 459 1390 2300 3900 18900
2021-03-19 17:00 6.35 3440 40000 (2008) 130 (2005) 2340 151 194 273 307 459 1390 2300 3900 18900
2021-03-19 16:30 6.39 3480 40000 (2008) 130 (2005) 2340 151 194 273 307 459 1390 2300 3900 18900
2021-03-19 16:00 6.44 3540 40000 (2008) 130 (2005) 2340 151 194 273 307 459 1390 2300 3900 18900
2021-03-19 15:30 6.50 3610 40000 (2008) 130 (2005) 2340 151 194 273 307 459 1390 2300 3900 18900
2021-03-19 15:00 6.56 3680 40000 (2008) 130 (2005) 2340 151 194 273 307 459 1390 2300 3900 18900
2021-03-19 14:30 6.60 3730 40000 (2008) 130 (2005) 2340 151 194 273 307 459 1390 2300 3900 18900
2021-03-19 14:00 6.67 3810 40000 (2008) 130 (2005) 2340 151 194 273 307 459 1390 2300 3900 18900
2021-03-19 13:30 6.72 3870 40000 (2008) 130 (2005) 2340 151 194 273 307 459 1390 2300 3900 18900
2021-03-19 13:00 6.78 3930 40000 (2008) 130 (2005) 2340 151 194 273 307 459 1390 2300 3900 18900
2021-03-19 12:30 6.83 3990 40000 (2008) 130 (2005) 2340 151 194 273 307 459 1390 2300 3900 18900
2021-03-19 12:00 6.89 4060 40000 (2008) 130 (2005) 2340 151 194 273 307 459 1390 2300 3900 18900
2021-03-19 11:30 6.95 4130 40000 (2008) 130 (2005) 2340 151 194 273 307 459 1390 2300 3900 18900
2021-03-19 11:00 7.01 4200 40000 (2008) 130 (2005) 2340 151 194 273 307 459 1390 2300 3900 18900
2021-03-19 10:30 7.07 4270 40000 (2008) 130 (2005) 2340 151 194 273 307 459 1390 2300 3900 18900
2021-03-19 10:00 7.14 4350 40000 (2008) 130 (2005) 2340 151 194 273 307 459 1390 2300 3900 18900
2021-03-19 09:30 7.20 4420 40000 (2008) 130 (2005) 2340 151 194 273 307 459 1390 2300 3900 18900
2021-03-19 09:00 7.27 4490 40000 (2008) 130 (2005) 2340 151 194 273 307 459 1390 2300 3900 18900
2021-03-19 08:30 7.35 4580 40000 (2008) 130 (2005) 2340 151 194 273 307 459 1390 2300 3900 18900
2021-03-19 08:00 7.41 4650 40000 (2008) 130 (2005) 2340 151 194 273 307 459 1390 2300 3900 18900
2021-03-19 07:30 7.47 4710 40000 (2008) 130 (2005) 2340 151 194 273 307 459 1390 2300 3900 18900
2021-03-19 07:00 7.55 4800 40000 (2008) 130 (2005) 2340 151 194 273 307 459 1390 2300 3900 18900
2021-03-19 06:30 7.62 4870 40000 (2008) 130 (2005) 2340 151 194 273 307 459 1390 2300 3900 18900
2021-03-19 06:00 7.69 4950 40000 (2008) 130 (2005) 2340 151 194 273 307 459 1390 2300 3900 18900
2021-03-19 05:30 7.76 5020 40000 (2008) 130 (2005) 2340 151 194 273 307 459 1390 2300 3900 18900
2021-03-19 05:00 7.84 5110 40000 (2008) 130 (2005) 2340 151 194 273 307 459 1390 2300 3900 18900
2021-03-19 04:30 7.93 5210 40000 (2008) 130 (2005) 2340 151 194 273 307 459 1390 2300 3900 18900
2021-03-19 04:00 7.99 5270 40000 (2008) 130 (2005) 2340 151 194 273 307 459 1390 2300 3900 18900
2021-03-19 03:30 8.08 5380 40000 (2008) 130 (2005) 2340 151 194 273 307 459 1390 2300 3900 18900
2021-03-19 03:00 8.17 5480 40000 (2008) 130 (2005) 2340 151 194 273 307 459 1390 2300 3900 18900
2021-03-19 02:30 8.25 5570 40000 (2008) 130 (2005) 2340 151 194 273 307 459 1390 2300 3900 18900
2021-03-19 02:00 8.34 5670 40000 (2008) 130 (2005) 2340 151 194 273 307 459 1390 2300 3900 18900
2021-03-19 01:30 8.45 5800 40000 (2008) 130 (2005) 2340 151 194 273 307 459 1390 2300 3900 18900
2021-03-19 01:00 8.54 5910 40000 (2008) 130 (2005) 2340 151 194 273 307 459 1390 2300 3900 18900
2021-03-19 00:30 8.63 6020 40000 (2008) 130 (2005) 2340 151 194 273 307 459 1390 2300 3900 18900
2021-03-19 00:00 8.74 6150 40000 (2008) 130 (2005) 2340 151 194 273 307 459 1390 2300 3900 18900
2021-03-18 23:30 8.86 6300 18800 (2008) 134 (2005) 1770 147 193 265 287 485 991 1160 2800 17500
2021-03-18 23:00 8.94 6400 18800 (2008) 134 (2005) 1770 147 193 265 287 485 991 1160 2800 17500
2021-03-18 22:30 9.07 6570 18800 (2008) 134 (2005) 1770 147 193 265 287 485 991 1160 2800 17500
2021-03-18 22:00 9.22 6790 18800 (2008) 134 (2005) 1770 147 193 265 287 485 991 1160 2800 17500
2021-03-18 21:30 9.33 6950 18800 (2008) 134 (2005) 1770 147 193 265 287 485 991 1160 2800 17500
2021-03-18 21:00 9.45 7130 18800 (2008) 134 (2005) 1770 147 193 265 287 485 991 1160 2800 17500
2021-03-18 20:30 9.58 7330 18800 (2008) 134 (2005) 1770 147 193 265 287 485 991 1160 2800 17500
2021-03-18 20:00 9.71 7530 18800 (2008) 134 (2005) 1770 147 193 265 287 485 991 1160 2800 17500
2021-03-18 19:30 9.84 7730 18800 (2008) 134 (2005) 1770 147 193 265 287 485 991 1160 2800 17500
2021-03-18 19:00 9.98 7950 18800 (2008) 134 (2005) 1770 147 193 265 287 485 991 1160 2800 17500
2021-03-18 18:30 10.14 8210 18800 (2008) 134 (2005) 1770 147 193 265 287 485 991 1160 2800 17500
2021-03-18 18:00 10.27 8420 18800 (2008) 134 (2005) 1770 147 193 265 287 485 991 1160 2800 17500
2021-03-18 17:30 10.39 8620 18800 (2008) 134 (2005) 1770 147 193 265 287 485 991 1160 2800 17500
2021-03-18 17:00 10.52 8840 18800 (2008) 134 (2005) 1770 147 193 265 287 485 991 1160 2800 17500
2021-03-18 16:30 10.63 9030 18800 (2008) 134 (2005) 1770 147 193 265 287 485 991 1160 2800 17500
2021-03-18 16:00 10.71 9170 18800 (2008) 134 (2005) 1770 147 193 265 287 485 991 1160 2800 17500
2021-03-18 15:30 10.78 9290 18800 (2008) 134 (2005) 1770 147 193 265 287 485 991 1160 2800 17500
2021-03-18 15:00 10.82 9360 18800 (2008) 134 (2005) 1770 147 193 265 287 485 991 1160 2800 17500
2021-03-18 14:30 10.81 9350 18800 (2008) 134 (2005) 1770 147 193 265 287 485 991 1160 2800 17500
2021-03-18 14:00 10.80 9330 18800 (2008) 134 (2005) 1770 147 193 265 287 485 991 1160 2800 17500
2021-03-18 13:30 10.77 9280 18800 (2008) 134 (2005) 1770 147 193 265 287 485 991 1160 2800 17500
2021-03-18 13:00 10.73 9210 18800 (2008) 134 (2005) 1770 147 193 265 287 485 991 1160 2800 17500
2021-03-18 12:30 10.67 9100 18800 (2008) 134 (2005) 1770 147 193 265 287 485 991 1160 2800 17500
2021-03-18 12:00 10.61 9000 18800 (2008) 134 (2005) 1770 147 193 265 287 485 991 1160 2800 17500
2021-03-18 11:30 10.57 8930 18800 (2008) 134 (2005) 1770 147 193 265 287 485 991 1160 2800 17500
2021-03-18 11:00 10.54 8880 18800 (2008) 134 (2005) 1770 147 193 265 287 485 991 1160 2800 17500
2021-03-18 10:30 10.57 8930 18800 (2008) 134 (2005) 1770 147 193 265 287 485 991 1160 2800 17500
2021-03-18 10:00 10.56 8910 18800 (2008) 134 (2005) 1770 147 193 265 287 485 991 1160 2800 17500
2021-03-18 09:30 10.60 8980 18800 (2008) 134 (2005) 1770 147 193 265 287 485 991 1160 2800 17500
2021-03-18 09:00 10.61 9000 18800 (2008) 134 (2005) 1770 147 193 265 287 485 991 1160 2800 17500
2021-03-18 08:30 10.63 9030 18800 (2008) 134 (2005) 1770 147 193 265 287 485 991 1160 2800 17500
2021-03-18 08:00 10.64 9050 18800 (2008) 134 (2005) 1770 147 193 265 287 485 991 1160 2800 17500
2021-03-18 07:30 10.65 9070 18800 (2008) 134 (2005) 1770 147 193 265 287 485 991 1160 2800 17500
2021-03-18 07:00 10.65 9070 18800 (2008) 134 (2005) 1770 147 193 265 287 485 991 1160 2800 17500
2021-03-18 06:30 10.59 8960 18800 (2008) 134 (2005) 1770 147 193 265 287 485 991 1160 2800 17500
2021-03-18 06:00 10.55 8900 18800 (2008) 134 (2005) 1770 147 193 265 287 485 991 1160 2800 17500
2021-03-18 05:30 10.50 8810 18800 (2008) 134 (2005) 1770 147 193 265 287 485 991 1160 2800 17500
2021-03-18 05:00 10.45 8730 18800 (2008) 134 (2005) 1770 147 193 265 287 485 991 1160 2800 17500
2021-03-18 04:30 10.39 8620 18800 (2008) 134 (2005) 1770 147 193 265 287 485 991 1160 2800 17500
2021-03-18 04:00 10.31 8490 18800 (2008) 134 (2005) 1770 147 193 265 287 485 991 1160 2800 17500
2021-03-18 03:30 10.22 8340 18800 (2008) 134 (2005) 1770 147 193 265 287 485 991 1160 2800 17500
2021-03-18 03:00 10.17 8260 18800 (2008) 134 (2005) 1770 147 193 265 287 485 991 1160 2800 17500
2021-03-18 02:30 10.08 8110 18800 (2008) 134 (2005) 1770 147 193 265 287 485 991 1160 2800 17500
2021-03-18 02:00 10.03 8030 18800 (2008) 134 (2005) 1770 147 193 265 287 485 991 1160 2800 17500
2021-03-18 01:30 1 7980 18800 (2008) 134 (2005) 1770 147 193 265 287 485 991 1160 2800 17500
2021-03-18 01:00 9.95 7900 18800 (2008) 134 (2005) 1770 147 193 265 287 485 991 1160 2800 17500
2021-03-18 00:30 9.91 7840 18800 (2008) 134 (2005) 1770 147 193 265 287 485 991 1160 2800 17500
2021-03-18 00:00 9.84 7730 18800 (2008) 134 (2005) 1770 147 193 265 287 485 991 1160 2800 17500
2021-03-17 23:30 9.78 7640 5620 (2012) 141 (2005) 788 155 189 264 290 462 857 1040 1400 3970
2021-03-17 23:00 9.69 7500 5620 (2012) 141 (2005) 788 155 189 264 290 462 857 1040 1400 3970
2021-03-17 22:30 9.55 7280 5620 (2012) 141 (2005) 788 155 189 264 290 462 857 1040 1400 3970
2021-03-17 22:00 9.39 7040 5620 (2012) 141 (2005) 788 155 189 264 290 462 857 1040 1400 3970
2021-03-17 21:30 9.12 6640 5620 (2012) 141 (2005) 788 155 189 264 290 462 857 1040 1400 3970
2021-03-17 21:00 8.75 6160 5620 (2012) 141 (2005) 788 155 189 264 290 462 857 1040 1400 3970
2021-03-17 20:30 8.34 5670 5620 (2012) 141 (2005) 788 155 189 264 290 462 857 1040 1400 3970
2021-03-17 20:00 7.91 5190 5620 (2012) 141 (2005) 788 155 189 264 290 462 857 1040 1400 3970
2021-03-17 19:30 7.40 4640 5620 (2012) 141 (2005) 788 155 189 264 290 462 857 1040 1400 3970
2021-03-17 19:00 6.90 4070 5620 (2012) 141 (2005) 788 155 189 264 290 462 857 1040 1400 3970
2021-03-17 18:30 6.46 3570 5620 (2012) 141 (2005) 788 155 189 264 290 462 857 1040 1400 3970
2021-03-17 18:00 6.08 3150 5620 (2012) 141 (2005) 788 155 189 264 290 462 857 1040 1400 3970
2021-03-17 17:30 5.72 2770 5620 (2012) 141 (2005) 788 155 189 264 290 462 857 1040 1400 3970
2021-03-17 17:00 5.38 2430 5620 (2012) 141 (2005) 788 155 189 264 290 462 857 1040 1400 3970
2021-03-17 16:30 5.07 2160 5620 (2012) 141 (2005) 788 155 189 264 290 462 857 1040 1400 3970
2021-03-17 16:00 4.82 1940 5620 (2012) 141 (2005) 788 155 189 264 290 462 857 1040 1400 3970
2021-03-17 15:30 4.64 1770 5620 (2012) 141 (2005) 788 155 189 264 290 462 857 1040 1400 3970
2021-03-17 15:00 4.54 1680 5620 (2012) 141 (2005) 788 155 189 264 290 462 857 1040 1400 3970
2021-03-17 14:30 4.47 1620 5620 (2012) 141 (2005) 788 155 189 264 290 462 857 1040 1400 3970
2021-03-17 14:00 4.44 1590 5620 (2012) 141 (2005) 788 155 189 264 290 462 857 1040 1400 3970
2021-03-17 13:30 4.41 1560 5620 (2012) 141 (2005) 788 155 189 264 290 462 857 1040 1400 3970
2021-03-17 13:00 4.40 1550 5620 (2012) 141 (2005) 788 155 189 264 290 462 857 1040 1400 3970
2021-03-17 12:30 4.39 1540 5620 (2012) 141 (2005) 788 155 189 264 290 462 857 1040 1400 3970
2021-03-17 12:00 4.39 1540 5620 (2012) 141 (2005) 788 155 189 264 290 462 857 1040 1400 3970
2021-03-17 11:30 4.41 1560 5620 (2012) 141 (2005) 788 155 189 264 290 462 857 1040 1400 3970
2021-03-17 11:00 4.41 1560 5620 (2012) 141 (2005) 788 155 189 264 290 462 857 1040 1400 3970
2021-03-17 10:30 4.42 1570 5620 (2012) 141 (2005) 788 155 189 264 290 462 857 1040 1400 3970
2021-03-17 10:00 4.43 1580 5620 (2012) 141 (2005) 788 155 189 264 290 462 857 1040 1400 3970
2021-03-17 09:30 4.44 1590 5620 (2012) 141 (2005) 788 155 189 264 290 462 857 1040 1400 3970
2021-03-17 09:00 4.44 1590 5620 (2012) 141 (2005) 788 155 189 264 290 462 857 1040 1400 3970
2021-03-17 08:30 4.46 1610 5620 (2012) 141 (2005) 788 155 189 264 290 462 857 1040 1400 3970
2021-03-17 08:00 4.47 1620 5620 (2012) 141 (2005) 788 155 189 264 290 462 857 1040 1400 3970
2021-03-17 07:30 4.49 1630 5620 (2012) 141 (2005) 788 155 189 264 290 462 857 1040 1400 3970
2021-03-17 07:00 4.50 1640 5620 (2012) 141 (2005) 788 155 189 264 290 462 857 1040 1400 3970
2021-03-17 06:30 4.52 1660 5620 (2012) 141 (2005) 788 155 189 264 290 462 857 1040 1400 3970
2021-03-17 06:00 4.53 1670 5620 (2012) 141 (2005) 788 155 189 264 290 462 857 1040 1400 3970
2021-03-17 05:30 4.55 1690 5620 (2012) 141 (2005) 788 155 189 264 290 462 857 1040 1400 3970
2021-03-17 05:00 4.56 1700 5620 (2012) 141 (2005) 788 155 189 264 290 462 857 1040 1400 3970
2021-03-17 04:30 4.58 1720 5620 (2012) 141 (2005) 788 155 189 264 290 462 857 1040 1400 3970
2021-03-17 04:00 4.59 1730 5620 (2012) 141 (2005) 788 155 189 264 290 462 857 1040 1400 3970
2021-03-17 03:30 4.60 1740 5620 (2012) 141 (2005) 788 155 189 264 290 462 857 1040 1400 3970
2021-03-17 03:00 4.63 1760 5620 (2012) 141 (2005) 788 155 189 264 290 462 857 1040 1400 3970
2021-03-17 02:30 4.64 1770 5620 (2012) 141 (2005) 788 155 189 264 290 462 857 1040 1400 3970
2021-03-17 02:00 4.66 1790 5620 (2012) 141 (2005) 788 155 189 264 290 462 857 1040 1400 3970
2021-03-17 01:30 4.67 1800 5620 (2012) 141 (2005) 788 155 189 264 290 462 857 1040 1400 3970
2021-03-17 01:00 4.69 1820 5620 (2012) 141 (2005) 788 155 189 264 290 462 857 1040 1400 3970
2021-03-17 00:30 4.71 1840 5620 (2012) 141 (2005) 788 155 189 264 290 462 857 1040 1400 3970
2021-03-17 00:00 4.72 1850 5620 (2012) 141 (2005) 788 155 189 264 290 462 857 1040 1400 3970
2021-03-16 23:30 4.74 1870 5880 (2012) 146 (2005) 826 162 194 244 267 453 1010 1230 1980 3420
2021-03-16 23:00 4.76 1880 5880 (2012) 146 (2005) 826 162 194 244 267 453 1010 1230 1980 3420
2021-03-16 22:30 4.78 1900 5880 (2012) 146 (2005) 826 162 194 244 267 453 1010 1230 1980 3420
2021-03-16 22:00 4.79 1910 5880 (2012) 146 (2005) 826 162 194 244 267 453 1010 1230 1980 3420
2021-03-16 21:30 4.81 1930 5880 (2012) 146 (2005) 826 162 194 244 267 453 1010 1230 1980 3420
2021-03-16 21:00 4.84 1960 5880 (2012) 146 (2005) 826 162 194 244 267 453 1010 1230 1980 3420
2021-03-16 20:30 4.85 1960 5880 (2012) 146 (2005) 826 162 194 244 267 453 1010 1230 1980 3420
2021-03-16 20:00 4.87 1980 5880 (2012) 146 (2005) 826 162 194 244 267 453 1010 1230 1980 3420
2021-03-16 19:30 4.89 2000 5880 (2012) 146 (2005) 826 162 194 244 267 453 1010 1230 1980 3420
2021-03-16 19:00 4.91 2020 5880 (2012) 146 (2005) 826 162 194 244 267 453 1010 1230 1980 3420
2021-03-16 18:30 4.93 2040 5880 (2012) 146 (2005) 826 162 194 244 267 453 1010 1230 1980 3420
2021-03-16 18:00 4.95 2050 5880 (2012) 146 (2005) 826 162 194 244 267 453 1010 1230 1980 3420
2021-03-16 17:30 4.97 2070 5880 (2012) 146 (2005) 826 162 194 244 267 453 1010 1230 1980 3420
2021-03-16 17:00 4.99 2090 5880 (2012) 146 (2005) 826 162 194 244 267 453 1010 1230 1980 3420
2021-03-16 16:30 5.02 2110 5880 (2012) 146 (2005) 826 162 194 244 267 453 1010 1230 1980 3420
2021-03-16 16:00 5.04 2130 5880 (2012) 146 (2005) 826 162 194 244 267 453 1010 1230 1980 3420
2021-03-16 15:30 5.06 2150 5880 (2012) 146 (2005) 826 162 194 244 267 453 1010 1230 1980 3420
2021-03-16 15:00 5.08 2170 5880 (2012) 146 (2005) 826 162 194 244 267 453 1010 1230 1980 3420
2021-03-16 14:30 5.11 2190 5880 (2012) 146 (2005) 826 162 194 244 267 453 1010 1230 1980 3420
2021-03-16 14:00 5.13 2210 5880 (2012) 146 (2005) 826 162 194 244 267 453 1010 1230 1980 3420
2021-03-16 13:30 5.16 2240 5880 (2012) 146 (2005) 826 162 194 244 267 453 1010 1230 1980 3420
2021-03-16 13:00 5.19 2270 5880 (2012) 146 (2005) 826 162 194 244 267 453 1010 1230 1980 3420
2021-03-16 12:30 5.22 2290 5880 (2012) 146 (2005) 826 162 194 244 267 453 1010 1230 1980 3420
2021-03-16 12:00 5.24 2310 5880 (2012) 146 (2005) 826 162 194 244 267 453 1010 1230 1980 3420
2021-03-16 11:30 5.27 2340 5880 (2012) 146 (2005) 826 162 194 244 267 453 1010 1230 1980 3420
2021-03-16 11:00 5.30 2360 5880 (2012) 146 (2005) 826 162 194 244 267 453 1010 1230 1980 3420
2021-03-16 10:30 5.33 2390 5880 (2012) 146 (2005) 826 162 194 244 267 453 1010 1230 1980 3420
2021-03-16 10:00 5.36 2420 5880 (2012) 146 (2005) 826 162 194 244 267 453 1010 1230 1980 3420
2021-03-16 09:30 5.39 2440 5880 (2012) 146 (2005) 826 162 194 244 267 453 1010 1230 1980 3420
2021-03-16 09:00 5.42 2470 5880 (2012) 146 (2005) 826 162 194 244 267 453 1010 1230 1980 3420
2021-03-16 08:30 5.45 2500 5880 (2012) 146 (2005) 826 162 194 244 267 453 1010 1230 1980 3420
2021-03-16 08:00 5.48 2530 5880 (2012) 146 (2005) 826 162 194 244 267 453 1010 1230 1980 3420
2021-03-16 07:30 5.52 2570 5880 (2012) 146 (2005) 826 162 194 244 267 453 1010 1230 1980 3420
2021-03-16 07:00 5.54 2590 5880 (2012) 146 (2005) 826 162 194 244 267 453 1010 1230 1980 3420
2021-03-16 06:30 5.57 2620 5880 (2012) 146 (2005) 826 162 194 244 267 453 1010 1230 1980 3420
2021-03-16 06:00 5.61 2660 5880 (2012) 146 (2005) 826 162 194 244 267 453 1010 1230 1980 3420
2021-03-16 05:30 5.65 2700 5880 (2012) 146 (2005) 826 162 194 244 267 453 1010 1230 1980 3420
2021-03-16 05:00 5.67 2720 5880 (2012) 146 (2005) 826 162 194 244 267 453 1010 1230 1980 3420
2021-03-16 04:30 5.71 2760 5880 (2012) 146 (2005) 826 162 194 244 267 453 1010 1230 1980 3420
2021-03-16 04:00 5.74 2790 5880 (2012) 146 (2005) 826 162 194 244 267 453 1010 1230 1980 3420
2021-03-16 03:30 5.77 2820 5880 (2012) 146 (2005) 826 162 194 244 267 453 1010 1230 1980 3420
2021-03-16 03:00 5.81 2860 5880 (2012) 146 (2005) 826 162 194 244 267 453 1010 1230 1980 3420
2021-03-16 02:30 5.84 2890 5880 (2012) 146 (2005) 826 162 194 244 267 453 1010 1230 1980 3420
2021-03-16 02:00 5.88 2930 5880 (2012) 146 (2005) 826 162 194 244 267 453 1010 1230 1980 3420
2021-03-16 01:30 5.91 2970 5880 (2012) 146 (2005) 826 162 194 244 267 453 1010 1230 1980 3420
2021-03-16 01:00 5.94 3000 5880 (2012) 146 (2005) 826 162 194 244 267 453 1010 1230 1980 3420
2021-03-16 00:30 5.98 3040 5880 (2012) 146 (2005) 826 162 194 244 267 453 1010 1230 1980 3420
2021-03-16 00:00 6.00 3060 5880 (2012) 146 (2005) 826 162 194 244 267 453 1010 1230 1980 3420
2021-03-15 23:30 6.03 3090 5370 (2011) 151 (2005) 900 167 197 246 266 390 901 1170 3040 4010
2021-03-15 23:00 6.06 3130 5370 (2011) 151 (2005) 900 167 197 246 266 390 901 1170 3040 4010
2021-03-15 22:30 6.08 3150 5370 (2011) 151 (2005) 900 167 197 246 266 390 901 1170 3040 4010
2021-03-15 22:00 6.10 3170 5370 (2011) 151 (2005) 900 167 197 246 266 390 901 1170 3040 4010
2021-03-15 21:30 6.12 3190 5370 (2011) 151 (2005) 900 167 197 246 266 390 901 1170 3040 4010
2021-03-15 21:00 6.14 3210 5370 (2011) 151 (2005) 900 167 197 246 266 390 901 1170 3040 4010
2021-03-15 20:30 6.15 3220 5370 (2011) 151 (2005) 900 167 197 246 266 390 901 1170 3040 4010
2021-03-15 20:00 6.16 3230 5370 (2011) 151 (2005) 900 167 197 246 266 390 901 1170 3040 4010
2021-03-15 19:30 6.17 3240 5370 (2011) 151 (2005) 900 167 197 246 266 390 901 1170 3040 4010
2021-03-15 19:00 6.17 3240 5370 (2011) 151 (2005) 900 167 197 246 266 390 901 1170 3040 4010
2021-03-15 18:30 6.17 3240 5370 (2011) 151 (2005) 900 167 197 246 266 390 901 1170 3040 4010
2021-03-15 18:00 6.16 3230 5370 (2011) 151 (2005) 900 167 197 246 266 390 901 1170 3040 4010
2021-03-15 17:30 6.14 3210 5370 (2011) 151 (2005) 900 167 197 246 266 390 901 1170 3040 4010
2021-03-15 17:00 6.13 3200 5370 (2011) 151 (2005) 900 167 197 246 266 390 901 1170 3040 4010
2021-03-15 16:30 6.11 3180 5370 (2011) 151 (2005) 900 167 197 246 266 390 901 1170 3040 4010
2021-03-15 16:00 6.09 3160 5370 (2011) 151 (2005) 900 167 197 246 266 390 901 1170 3040 4010
2021-03-15 15:30 6.07 3140 5370 (2011) 151 (2005) 900 167 197 246 266 390 901 1170 3040 4010
2021-03-15 15:00 6.04 3100 5370 (2011) 151 (2005) 900 167 197 246 266 390 901 1170 3040 4010
2021-03-15 14:30 6.02 3080 5370 (2011) 151 (2005) 900 167 197 246 266 390 901 1170 3040 4010
2021-03-15 14:00 5.99 3050 5370 (2011) 151 (2005) 900 167 197 246 266 390 901 1170 3040 4010
2021-03-15 13:30 5.96 3020 5370 (2011) 151 (2005) 900 167 197 246 266 390 901 1170 3040 4010
2021-03-15 13:00 5.93 2990 5370 (2011) 151 (2005) 900 167 197 246 266 390 901 1170 3040 4010
2021-03-15 12:30 5.89 2940 5370 (2011) 151 (2005) 900 167 197 246 266 390 901 1170 3040 4010
2021-03-15 12:00 5.85 2900 5370 (2011) 151 (2005) 900 167 197 246 266 390 901 1170 3040 4010
2021-03-15 11:30 5.79 2840 5370 (2011) 151 (2005) 900 167 197 246 266 390 901 1170 3040 4010
2021-03-15 11:00 5.75 2800 5370 (2011) 151 (2005) 900 167 197 246 266 390 901 1170 3040 4010
2021-03-15 10:30 5.70 2750 5370 (2011) 151 (2005) 900 167 197 246 266 390 901 1170 3040 4010
2021-03-15 10:00 5.66 2710 5370 (2011) 151 (2005) 900 167 197 246 266 390 901 1170 3040 4010
2021-03-15 09:30 5.59 2640 5370 (2011) 151 (2005) 900 167 197 246 266 390 901 1170 3040 4010
2021-03-15 09:00 5.55 2600 5370 (2011) 151 (2005) 900 167 197 246 266 390 901 1170 3040 4010
2021-03-15 08:30 5.50 2550 5370 (2011) 151 (2005) 900 167 197 246 266 390 901 1170 3040 4010
2021-03-15 08:00 5.46 2510 5370 (2011) 151 (2005) 900 167 197 246 266 390 901 1170 3040 4010
2021-03-15 07:30 5.42 2470 5370 (2011) 151 (2005) 900 167 197 246 266 390 901 1170 3040 4010
2021-03-15 07:00 5.39 2440 5370 (2011) 151 (2005) 900 167 197 246 266 390 901 1170 3040 4010
2021-03-15 06:30 5.37 2430 5370 (2011) 151 (2005) 900 167 197 246 266 390 901 1170 3040 4010
2021-03-15 06:00 5.35 2410 5370 (2011) 151 (2005) 900 167 197 246 266 390 901 1170 3040 4010
2021-03-15 05:30 5.35 2410 5370 (2011) 151 (2005) 900 167 197 246 266 390 901 1170 3040 4010
2021-03-15 05:00 5.34 2400 5370 (2011) 151 (2005) 900 167 197 246 266 390 901 1170 3040 4010
2021-03-15 04:30 5.33 2390 5370 (2011) 151 (2005) 900 167 197 246 266 390 901 1170 3040 4010
2021-03-15 04:00 5.34 2400 5370 (2011) 151 (2005) 900 167 197 246 266 390 901 1170 3040 4010
2021-03-15 03:30 5.34 2400 5370 (2011) 151 (2005) 900 167 197 246 266 390 901 1170 3040 4010
2021-03-15 03:00 5.35 2410 5370 (2011) 151 (2005) 900 167 197 246 266 390 901 1170 3040 4010
2021-03-15 02:30 5.37 2430 5370 (2011) 151 (2005) 900 167 197 246 266 390 901 1170 3040 4010
2021-03-15 02:00 5.38 2430 5370 (2011) 151 (2005) 900 167 197 246 266 390 901 1170 3040 4010
2021-03-15 01:30 5.40 2450 5370 (2011) 151 (2005) 900 167 197 246 266 390 901 1170 3040 4010
2021-03-15 01:00 5.43 2480 5370 (2011) 151 (2005) 900 167 197 246 266 390 901 1170 3040 4010
2021-03-15 00:30 5.45 2500 5370 (2011) 151 (2005) 900 167 197 246 266 390 901 1170 3040 4010
2021-03-15 00:00 5.49 2540 5370 (2011) 151 (2005) 900 167 197 246 266 390 901 1170 3040 4010
2021-03-14 23:30 5.50 2550 8920 (2015) 150 (1996) 1380 156 185 237 258 422 951 1620 5050 8780
2021-03-14 23:00 5.53 2580 8920 (2015) 150 (1996) 1380 156 185 237 258 422 951 1620 5050 8780
2021-03-14 22:30 5.55 2600 8920 (2015) 150 (1996) 1380 156 185 237 258 422 951 1620 5050 8780
2021-03-14 22:00 5.58 2630 8920 (2015) 150 (1996) 1380 156 185 237 258 422 951 1620 5050 8780
2021-03-14 21:30 5.61 2660 8920 (2015) 150 (1996) 1380 156 185 237 258 422 951 1620 5050 8780
2021-03-14 21:00 5.65 2700 8920 (2015) 150 (1996) 1380 156 185 237 258 422 951 1620 5050 8780
2021-03-14 20:30 5.67 2720 8920 (2015) 150 (1996) 1380 156 185 237 258 422 951 1620 5050 8780
2021-03-14 20:00 5.70 2750 8920 (2015) 150 (1996) 1380 156 185 237 258 422 951 1620 5050 8780
2021-03-14 19:30 5.75 2800 8920 (2015) 150 (1996) 1380 156 185 237 258 422 951 1620 5050 8780
2021-03-14 19:00 5.76 2810 8920 (2015) 150 (1996) 1380 156 185 237 258 422 951 1620 5050 8780
2021-03-14 18:30 5.79 2840 8920 (2015) 150 (1996) 1380 156 185 237 258 422 951 1620 5050 8780
2021-03-14 18:00 5.84 2890 8920 (2015) 150 (1996) 1380 156 185 237 258 422 951 1620 5050 8780
2021-03-14 17:30 5.87 2920 8920 (2015) 150 (1996) 1380 156 185 237 258 422 951 1620 5050 8780
2021-03-14 17:00 5.90 2960 8920 (2015) 150 (1996) 1380 156 185 237 258 422 951 1620 5050 8780
2021-03-14 16:30 5.94 3000 8920 (2015) 150 (1996) 1380 156 185 237 258 422 951 1620 5050 8780
2021-03-14 16:00 5.97 3030 8920 (2015) 150 (1996) 1380 156 185 237 258 422 951 1620 5050 8780
2021-03-14 15:30 6.01 3070 8920 (2015) 150 (1996) 1380 156 185 237 258 422 951 1620 5050 8780
2021-03-14 15:00 6.06 3130 8920 (2015) 150 (1996) 1380 156 185 237 258 422 951 1620 5050 8780
2021-03-14 14:30 6.09 3160 8920 (2015) 150 (1996) 1380 156 185 237 258 422 951 1620 5050 8780
2021-03-14 14:00 6.12 3190 8920 (2015) 150 (1996) 1380 156 185 237 258 422 951 1620 5050 8780
2021-03-14 13:30 6.17 3240 8920 (2015) 150 (1996) 1380 156 185 237 258 422 951 1620 5050 8780
2021-03-14 13:00 6.21 3280 8920 (2015) 150 (1996) 1380 156 185 237 258 422 951 1620 5050 8780
2021-03-14 12:30 6.26 3340 8920 (2015) 150 (1996) 1380 156 185 237 258 422 951 1620 5050 8780
2021-03-14 12:00 6.30 3380 8920 (2015) 150 (1996) 1380 156 185 237 258 422 951 1620 5050 8780
2021-03-14 11:30 6.34 3430 8920 (2015) 150 (1996) 1380 156 185 237 258 422 951 1620 5050 8780
2021-03-14 11:00 6.40 3500 8920 (2015) 150 (1996) 1380 156 185 237 258 422 951 1620 5050 8780
2021-03-14 10:30 6.45 3550 8920 (2015) 150 (1996) 1380 156 185 237 258 422 951 1620 5050 8780
2021-03-14 10:00 6.50 3610 8920 (2015) 150 (1996) 1380 156 185 237 258 422 951 1620 5050 8780
2021-03-14 09:30 6.55 3670 8920 (2015) 150 (1996) 1380 156 185 237 258 422 951 1620 5050 8780
2021-03-14 09:00 6.60 3730 8920 (2015) 150 (1996) 1380 156 185 237 258 422 951 1620 5050 8780
2021-03-14 08:30 6.65 3780 8920 (2015) 150 (1996) 1380 156 185 237 258 422 951 1620 5050 8780
2021-03-14 08:00 6.70 3840 8920 (2015) 150 (1996) 1380 156 185 237 258 422 951 1620 5050 8780
2021-03-14 07:30 6.76 3910 8920 (2015) 150 (1996) 1380 156 185 237 258 422 951 1620 5050 8780
2021-03-14 07:00 6.83 3990 8920 (2015) 150 (1996) 1380 156 185 237 258 422 951 1620 5050 8780
2021-03-14 06:30 6.90 4070 8920 (2015) 150 (1996) 1380 156 185 237 258 422 951 1620 5050 8780
2021-03-14 06:00 6.93 4110 8920 (2015) 150 (1996) 1380 156 185 237 258 422 951 1620 5050 8780
2021-03-14 05:30 7.02 4210 8920 (2015) 150 (1996) 1380 156 185 237 258 422 951 1620 5050 8780
2021-03-14 05:00 7.08 4280 8920 (2015) 150 (1996) 1380 156 185 237 258 422 951 1620 5050 8780
2021-03-14 04:30 7.16 4370 8920 (2015) 150 (1996) 1380 156 185 237 258 422 951 1620 5050 8780
2021-03-14 04:00 7.22 4440 8920 (2015) 150 (1996) 1380 156 185 237 258 422 951 1620 5050 8780
2021-03-14 03:30 7.29 4520 8920 (2015) 150 (1996) 1380 156 185 237 258 422 951 1620 5050 8780
2021-03-14 03:00 7.37 4610 8920 (2015) 150 (1996) 1380 156 185 237 258 422 951 1620 5050 8780
2021-03-14 01:30 7.46 4700 8920 (2015) 150 (1996) 1380 156 185 237 258 422 951 1620 5050 8780
2021-03-14 01:00 7.53 4780 8920 (2015) 150 (1996) 1380 156 185 237 258 422 951 1620 5050 8780
2021-03-14 00:30 7.63 4880 8920 (2015) 150 (1996) 1380 156 185 237 258 422 951 1620 5050 8780
2021-03-14 00:00 7.69 4950 8920 (2015) 150 (1996) 1380 156 185 237 258 422 951 1620 5050 8780
2021-03-13 23:30 7.78 5040 4730 (2006) 154 (1996) 809 162 195 231 255 438 1120 1150 1610 3570
2021-03-13 23:00 7.87 5140 4730 (2006) 154 (1996) 809 162 195 231 255 438 1120 1150 1610 3570
2021-03-13 22:30 7.97 5250 4730 (2006) 154 (1996) 809 162 195 231 255 438 1120 1150 1610 3570
2021-03-13 22:00 8.05 5340 4730 (2006) 154 (1996) 809 162 195 231 255 438 1120 1150 1610 3570
2021-03-13 21:30 8.16 5470 4730 (2006) 154 (1996) 809 162 195 231 255 438 1120 1150 1610 3570
2021-03-13 21:00 8.28 5600 4730 (2006) 154 (1996) 809 162 195 231 255 438 1120 1150 1610 3570
2021-03-13 20:30 8.37 5710 4730 (2006) 154 (1996) 809 162 195 231 255 438 1120 1150 1610 3570
2021-03-13 20:00 8.50 5860 4730 (2006) 154 (1996) 809 162 195 231 255 438 1120 1150 1610 3570
2021-03-13 19:30 8.61 5990 4730 (2006) 154 (1996) 809 162 195 231 255 438 1120 1150 1610 3570
2021-03-13 19:00 8.72 6130 4730 (2006) 154 (1996) 809 162 195 231 255 438 1120 1150 1610 3570
2021-03-13 18:30 8.85 6290 4730 (2006) 154 (1996) 809 162 195 231 255 438 1120 1150 1610 3570
2021-03-13 18:00 8.97 6430 4730 (2006) 154 (1996) 809 162 195 231 255 438 1120 1150 1610 3570
2021-03-13 17:30 9.09 6600 4730 (2006) 154 (1996) 809 162 195 231 255 438 1120 1150 1610 3570
2021-03-13 17:00 9.25 6830 4730 (2006) 154 (1996) 809 162 195 231 255 438 1120 1150 1610 3570
2021-03-13 16:30 9.36 7000 4730 (2006) 154 (1996) 809 162 195 231 255 438 1120 1150 1610 3570
2021-03-13 16:00 9.48 7170 4730 (2006) 154 (1996) 809 162 195 231 255 438 1120 1150 1610 3570
2021-03-13 15:30 9.63 7400 4730 (2006) 154 (1996) 809 162 195 231 255 438 1120 1150 1610 3570
2021-03-13 15:00 9.79 7650 4730 (2006) 154 (1996) 809 162 195 231 255 438 1120 1150 1610 3570
2021-03-13 14:30 9.89 7810 4730 (2006) 154 (1996) 809 162 195 231 255 438 1120 1150 1610 3570
2021-03-13 14:00 10.04 8050 4730 (2006) 154 (1996) 809 162 195 231 255 438 1120 1150 1610 3570
2021-03-13 13:30 10.16 8240 4730 (2006) 154 (1996) 809 162 195 231 255 438 1120 1150 1610 3570
2021-03-13 13:00 10.31 8490 4730 (2006) 154 (1996) 809 162 195 231 255 438 1120 1150 1610 3570
2021-03-13 12:30 10.44 8710 4730 (2006) 154 (1996) 809 162 195 231 255 438 1120 1150 1610 3570
2021-03-13 12:00 10.59 8960 4730 (2006) 154 (1996) 809 162 195 231 255 438 1120 1150 1610 3570
2021-03-13 11:30 10.75 9240 4730 (2006) 154 (1996) 809 162 195 231 255 438 1120 1150 1610 3570
2021-03-13 11:00 10.84 9400 4730 (2006) 154 (1996) 809 162 195 231 255 438 1120 1150 1610 3570
2021-03-13 10:30 10.96 9610 4730 (2006) 154 (1996) 809 162 195 231 255 438 1120 1150 1610 3570
2021-03-13 10:00 11.07 9810 4730 (2006) 154 (1996) 809 162 195 231 255 438 1120 1150 1610 3570
2021-03-13 09:30 11.19 10000 4730 (2006) 154 (1996) 809 162 195 231 255 438 1120 1150 1610 3570
2021-03-13 09:00 11.25 10100 4730 (2006) 154 (1996) 809 162 195 231 255 438 1120 1150 1610 3570
2021-03-13 08:30 11.34 10300 4730 (2006) 154 (1996) 809 162 195 231 255 438 1120 1150 1610 3570
2021-03-13 08:00 11.43 10500 4730 (2006) 154 (1996) 809 162 195 231 255 438 1120 1150 1610 3570
2021-03-13 07:30 11.47 10600 4730 (2006) 154 (1996) 809 162 195 231 255 438 1120 1150 1610 3570
2021-03-13 07:00 11.52 10600 4730 (2006) 154 (1996) 809 162 195 231 255 438 1120 1150 1610 3570
2021-03-13 06:30 11.57 10700 4730 (2006) 154 (1996) 809 162 195 231 255 438 1120 1150 1610 3570
2021-03-13 06:00 11.64 10900 4730 (2006) 154 (1996) 809 162 195 231 255 438 1120 1150 1610 3570
2021-03-13 05:30 11.65 10900 4730 (2006) 154 (1996) 809 162 195 231 255 438 1120 1150 1610 3570
2021-03-13 05:00 11.71 11000 4730 (2006) 154 (1996) 809 162 195 231 255 438 1120 1150 1610 3570
2021-03-13 04:30 11.74 11100 4730 (2006) 154 (1996) 809 162 195 231 255 438 1120 1150 1610 3570
2021-03-13 04:00 11.77 11100 4730 (2006) 154 (1996) 809 162 195 231 255 438 1120 1150 1610 3570
2021-03-13 03:30 11.80 11200 4730 (2006) 154 (1996) 809 162 195 231 255 438 1120 1150 1610 3570
2021-03-13 03:00 11.79 11200 4730 (2006) 154 (1996) 809 162 195 231 255 438 1120 1150 1610 3570
2021-03-13 02:30 11.83 11200 4730 (2006) 154 (1996) 809 162 195 231 255 438 1120 1150 1610 3570
2021-03-13 02:00 11.87 11300 4730 (2006) 154 (1996) 809 162 195 231 255 438 1120 1150 1610 3570
2021-03-13 01:30 11.91 11400 4730 (2006) 154 (1996) 809 162 195 231 255 438 1120 1150 1610 3570
2021-03-13 01:00 12.02 11600 4730 (2006) 154 (1996) 809 162 195 231 255 438 1120 1150 1610 3570
2021-03-13 00:30 12.04 11700 4730 (2006) 154 (1996) 809 162 195 231 255 438 1120 1150 1610 3570
2021-03-13 00:00 12.13 11800 4730 (2006) 154 (1996) 809 162 195 231 255 438 1120 1150 1610 3570
2021-03-12 23:30 12.29 12200 6210 (2006) 158 (1996) 874 171 208 229 248 502 988 1150 1730 3860
2021-03-12 23:00 12.38 12400 6210 (2006) 158 (1996) 874 171 208 229 248 502 988 1150 1730 3860
2021-03-12 22:30 12.50 12600 6210 (2006) 158 (1996) 874 171 208 229 248 502 988 1150 1730 3860
2021-03-12 22:00 12.58 12800 6210 (2006) 158 (1996) 874 171 208 229 248 502 988 1150 1730 3860
2021-03-12 21:30 12.73 13100 6210 (2006) 158 (1996) 874 171 208 229 248 502 988 1150 1730 3860
2021-03-12 21:00 12.87 13400 6210 (2006) 158 (1996) 874 171 208 229 248 502 988 1150 1730 3860
2021-03-12 20:30 12.98 13600 6210 (2006) 158 (1996) 874 171 208 229 248 502 988 1150 1730 3860
2021-03-12 20:00 13.12 13900 6210 (2006) 158 (1996) 874 171 208 229 248 502 988 1150 1730 3860
2021-03-12 19:30 13.23 14200 6210 (2006) 158 (1996) 874 171 208 229 248 502 988 1150 1730 3860
2021-03-12 19:00 13.40 14600 6210 (2006) 158 (1996) 874 171 208 229 248 502 988 1150 1730 3860
2021-03-12 18:30 13.48 14800 6210 (2006) 158 (1996) 874 171 208 229 248 502 988 1150 1730 3860
2021-03-12 18:00 13.58 15000 6210 (2006) 158 (1996) 874 171 208 229 248 502 988 1150 1730 3860
2021-03-12 17:30 13.75 15400 6210 (2006) 158 (1996) 874 171 208 229 248 502 988 1150 1730 3860
2021-03-12 17:00 13.95 15900 6210 (2006) 158 (1996) 874 171 208 229 248 502 988 1150 1730 3860
2021-03-12 16:30 14.09 16200 6210 (2006) 158 (1996) 874 171 208 229 248 502 988 1150 1730 3860
2021-03-12 16:00 14.29 16700 6210 (2006) 158 (1996) 874 171 208 229 248 502 988 1150 1730 3860
2021-03-12 15:30 14.41 17000 6210 (2006) 158 (1996) 874 171 208 229 248 502 988 1150 1730 3860
2021-03-12 15:00 14.63 17500 6210 (2006) 158 (1996) 874 171 208 229 248 502 988 1150 1730 3860
2021-03-12 14:30 14.77 17900 6210 (2006) 158 (1996) 874 171 208 229 248 502 988 1150 1730 3860
2021-03-12 14:00 14.98 18500 6210 (2006) 158 (1996) 874 171 208 229 248 502 988 1150 1730 3860
2021-03-12 13:30 15.11 18800 6210 (2006) 158 (1996) 874 171 208 229 248 502 988 1150 1730 3860
2021-03-12 13:00 15.36 19500 6210 (2006) 158 (1996) 874 171 208 229 248 502 988 1150 1730 3860
2021-03-12 12:30 15.54 20000 6210 (2006) 158 (1996) 874 171 208 229 248 502 988 1150 1730 3860
2021-03-12 12:00 15.72 20500 6210 (2006) 158 (1996) 874 171 208 229 248 502 988 1150 1730 3860
2021-03-12 11:30 15.90 21000 6210 (2006) 158 (1996) 874 171 208 229 248 502 988 1150 1730 3860
2021-03-12 11:00 16.06 21400 6210 (2006) 158 (1996) 874 171 208 229 248 502 988 1150 1730 3860
2021-03-12 10:30 16.20 21800 6210 (2006) 158 (1996) 874 171 208 229 248 502 988 1150 1730 3860
2021-03-12 10:00 16.31 22100 6210 (2006) 158 (1996) 874 171 208 229 248 502 988 1150 1730 3860
2021-03-12 09:30 16.37 22300 6210 (2006) 158 (1996) 874 171 208 229 248 502 988 1150 1730 3860
2021-03-12 09:00 16.39 22400 6210 (2006) 158 (1996) 874 171 208 229 248 502 988 1150 1730 3860
2021-03-12 08:30 16.34 22200 6210 (2006) 158 (1996) 874 171 208 229 248 502 988 1150 1730 3860
2021-03-12 08:00 16.27 22000 6210 (2006) 158 (1996) 874 171 208 229 248 502 988 1150 1730 3860
2021-03-12 07:30 16.07 21400 6210 (2006) 158 (1996) 874 171 208 229 248 502 988 1150 1730 3860
2021-03-12 07:00 15.90 21000 6210 (2006) 158 (1996) 874 171 208 229 248 502 988 1150 1730 3860
2021-03-12 06:30 15.68 20300 6210 (2006) 158 (1996) 874 171 208 229 248 502 988 1150 1730 3860
2021-03-12 06:00 15.29 19300 6210 (2006) 158 (1996) 874 171 208 229 248 502 988 1150 1730 3860
2021-03-12 05:30 14.97 18400 6210 (2006) 158 (1996) 874 171 208 229 248 502 988 1150 1730 3860
2021-03-12 05:00 14.54 17300 6210 (2006) 158 (1996) 874 171 208 229 248 502 988 1150 1730 3860
2021-03-12 04:30 13.98 15900 6210 (2006) 158 (1996) 874 171 208 229 248 502 988 1150 1730 3860
2021-03-12 04:00 13.54 14900 6210 (2006) 158 (1996) 874 171 208 229 248 502 988 1150 1730 3860
2021-03-12 03:30 13.05 13800 6210 (2006) 158 (1996) 874 171 208 229 248 502 988 1150 1730 3860
2021-03-12 03:00 12.58 12800 6210 (2006) 158 (1996) 874 171 208 229 248 502 988 1150 1730 3860
2021-03-12 02:30 12.12 11800 6210 (2006) 158 (1996) 874 171 208 229 248 502 988 1150 1730 3860
2021-03-12 02:00 11.69 11000 6210 (2006) 158 (1996) 874 171 208 229 248 502 988 1150 1730 3860
2021-03-12 01:30 11.26 10200 6210 (2006) 158 (1996) 874 171 208 229 248 502 988 1150 1730 3860
2021-03-12 01:00 10.77 9280 6210 (2006) 158 (1996) 874 171 208 229 248 502 988 1150 1730 3860
2021-03-12 00:30 10.22 8340 6210 (2006) 158 (1996) 874 171 208 229 248 502 988 1150 1730 3860
2021-03-12 00:00 9.51 7220 6210 (2006) 158 (1996) 874 171 208 229 248 502 988 1150 1730 3860
2021-03-11 23:30 8.60 5980 3400 (2015) 165 (1996) 855 178 209 234 252 515 1020 1190 2600 3090
2021-03-11 23:00 7.41 4650 3400 (2015) 165 (1996) 855 178 209 234 252 515 1020 1190 2600 3090
2021-03-11 22:30 6.12 3190 3400 (2015) 165 (1996) 855 178 209 234 252 515 1020 1190 2600 3090
2021-03-11 22:00 5.15 2230 3400 (2015) 165 (1996) 855 178 209 234 252 515 1020 1190 2600 3090
2021-03-11 21:30 4.59 1730 3400 (2015) 165 (1996) 855 178 209 234 252 515 1020 1190 2600 3090
2021-03-11 21:00 4.22 1400 3400 (2015) 165 (1996) 855 178 209 234 252 515 1020 1190 2600 3090
2021-03-11 20:30 3.88 1150 3400 (2015) 165 (1996) 855 178 209 234 252 515 1020 1190 2600 3090
2021-03-11 20:00 3.55 909 3400 (2015) 165 (1996) 855 178 209 234 252 515 1020 1190 2600 3090
2021-03-11 19:30 3.22 702 3400 (2015) 165 (1996) 855 178 209 234 252 515 1020 1190 2600 3090
2021-03-11 19:00 2.97 563 3400 (2015) 165 (1996) 855 178 209 234 252 515 1020 1190 2600 3090
2021-03-11 18:30 2.80 481 3400 (2015) 165 (1996) 855 178 209 234 252 515 1020 1190 2600 3090
2021-03-11 18:00 2.70 438 3400 (2015) 165 (1996) 855 178 209 234 252 515 1020 1190 2600 3090
2021-03-11 17:30 2.62 406 3400 (2015) 165 (1996) 855 178 209 234 252 515 1020 1190 2600 3090
2021-03-11 17:00 2.57 387 3400 (2015) 165 (1996) 855 178 209 234 252 515 1020 1190 2600 3090
2021-03-11 16:30 2.54 375 3400 (2015) 165 (1996) 855 178 209 234 252 515 1020 1190 2600 3090
2021-03-11 16:00 2.51 364 3400 (2015) 165 (1996) 855 178 209 234 252 515 1020 1190 2600 3090
2021-03-11 15:30 2.49 357 3400 (2015) 165 (1996) 855 178 209 234 252 515 1020 1190 2600 3090
2021-03-11 15:00 2.47 350 3400 (2015) 165 (1996) 855 178 209 234 252 515 1020 1190 2600 3090
2021-03-11 14:30 2.47 350 3400 (2015) 165 (1996) 855 178 209 234 252 515 1020 1190 2600 3090
2021-03-11 14:00 2.47 350 3400 (2015) 165 (1996) 855 178 209 234 252 515 1020 1190 2600 3090
2021-03-11 13:30 2.47 350 3400 (2015) 165 (1996) 855 178 209 234 252 515 1020 1190 2600 3090
2021-03-11 13:00 2.47 350 3400 (2015) 165 (1996) 855 178 209 234 252 515 1020 1190 2600 3090
2021-03-11 12:30 2.47 350 3400 (2015) 165 (1996) 855 178 209 234 252 515 1020 1190 2600 3090
2021-03-11 12:00 2.48 354 3400 (2015) 165 (1996) 855 178 209 234 252 515 1020 1190 2600 3090
2021-03-11 11:30 2.48 354 3400 (2015) 165 (1996) 855 178 209 234 252 515 1020 1190 2600 3090
2021-03-11 11:00 2.48 354 3400 (2015) 165 (1996) 855 178 209 234 252 515 1020 1190 2600 3090
2021-03-11 10:30 2.48 354 3400 (2015) 165 (1996) 855 178 209 234 252 515 1020 1190 2600 3090
2021-03-11 10:00 2.48 354 3400 (2015) 165 (1996) 855 178 209 234 252 515 1020 1190 2600 3090
2021-03-11 09:30 2.48 354 3400 (2015) 165 (1996) 855 178 209 234 252 515 1020 1190 2600 3090
2021-03-11 09:00 2.48 354 3400 (2015) 165 (1996) 855 178 209 234 252 515 1020 1190 2600 3090
2021-03-11 08:30 2.48 354 3400 (2015) 165 (1996) 855 178 209 234 252 515 1020 1190 2600 3090
2021-03-11 08:00 2.48 354 3400 (2015) 165 (1996) 855 178 209 234 252 515 1020 1190 2600 3090
2021-03-11 07:30 2.49 357 3400 (2015) 165 (1996) 855 178 209 234 252 515 1020 1190 2600 3090
2021-03-11 07:00 2.49 357 3400 (2015) 165 (1996) 855 178 209 234 252 515 1020 1190 2600 3090
2021-03-11 06:30 2.49 357 3400 (2015) 165 (1996) 855 178 209 234 252 515 1020 1190 2600 3090
2021-03-11 06:00 2.49 357 3400 (2015) 165 (1996) 855 178 209 234 252 515 1020 1190 2600 3090
2021-03-11 05:30 2.49 357 3400 (2015) 165 (1996) 855 178 209 234 252 515 1020 1190 2600 3090
2021-03-11 05:00 2.49 357 3400 (2015) 165 (1996) 855 178 209 234 252 515 1020 1190 2600 3090
2021-03-11 04:30 2.50 361 3400 (2015) 165 (1996) 855 178 209 234 252 515 1020 1190 2600 3090
2021-03-11 04:00 2.50 361 3400 (2015) 165 (1996) 855 178 209 234 252 515 1020 1190 2600 3090
2021-03-11 03:30 2.50 361 3400 (2015) 165 (1996) 855 178 209 234 252 515 1020 1190 2600 3090
2021-03-11 03:00 2.51 364 3400 (2015) 165 (1996) 855 178 209 234 252 515 1020 1190 2600 3090
2021-03-11 02:30 2.51 364 3400 (2015) 165 (1996) 855 178 209 234 252 515 1020 1190 2600 3090
2021-03-11 02:00 2.51 364 3400 (2015) 165 (1996) 855 178 209 234 252 515 1020 1190 2600 3090
2021-03-11 01:30 2.51 364 3400 (2015) 165 (1996) 855 178 209 234 252 515 1020 1190 2600 3090
2021-03-11 01:00 2.52 368 3400 (2015) 165 (1996) 855 178 209 234 252 515 1020 1190 2600 3090
2021-03-11 00:30 2.52 368 3400 (2015) 165 (1996) 855 178 209 234 252 515 1020 1190 2600 3090
2021-03-11 00:00 2.52 368 3400 (2015) 165 (1996) 855 178 209 234 252 515 1020 1190 2600 3090

A total of 1477 rows are displayed for years 1987 through 2020.